                ,  0.301,  0.397,  0.494,  0.590,  0.687,  0.784,  0.880,  0.977,  1.073,  1.170,  1.267,  1.363,  1.460,  1.556,  1.653,  1.749,  1.846,  1.943,  2.039,  2.136,  2.232,  2.329,  2.426,  2.522,  2.619,  2.715,  2.812,  2.909,  3.005,  3.102,  3.198,  3.295,  3.392,  3.488,  3.585,  3.681,  3.778,  3.875,  3.971,  4.068,  4.164,  4.261,  4.357,  4.454,  4.551,  4.647,  4.744,  4.840,  4.937,  5.034,  5.130,  5.227,  5.323,  5.420,  5.517,  5.613,  5.710,  5.806,  5.903,  6.000,  6.096,  6.193,  6.289,  6.386,  6.483,  6.579,  6.676,  6.772,  6.869,  6.965,  7.062,  7.159,  7.255,  7.352,  7.448,  7.545,  7.642,  7.738,  7.835,  7.931
2016/12/02 00:00,  999.0,    0.0,   -0.2,    0.2,    0.4,   -0.0,  999.0,    0.7,    0.2,    0.0,    0.4,    0.5,    0.1,   -0.0,    0.3,    0.3,    0.2,    0.1,    0.3,    0.2,    0.6,    0.9,    0.9,    0.5,    0.5,    0.2,    0.4,    0.3,   -0.1,   -0.0,    0.1,    0.4,    0.7,    0.1,    0.2,  999.0,    0.7,    0.7,    0.2,   -0.1,   -0.5,   -0.2,    0.2,   -0.0,   -0.5,   -0.4,   -0.2,   -0.2,   -0.3,   -0.6,    0.2,    0.0,    0.2,   -0.0,   -0.0,   -0.1,   -0.0,    0.2,   -0.2,    0.6,   -0.0,    0.0,   -0.1,   -0.3,    0.0,   -0.0,    0.1,    0.1,   -0.1,    0.1,  999.0,  999.0,  999.0,  999.0,  999.0,  999.0,  999.0,  999.0,  999.0,  999.0
2016/12/02 00:10,  999.0,   -0.2,    0.0,   -0.2,   -0.5,    0.1,    0.1,    0.1,    0.1,   -0.1,   -0.2,   -0.1,   -0.0,    0.0,    0.1,    0.2,    0.0,    0.2,    0.2,    0.5,    0.4,    0.5,    0.9,    0.6,    0.4,    0.5,    0.6,    0.4,    0.1,   -0.2,    0.2,    0.4,    0.9,   -0.2,   -0.2,   -0.1,    0.1,    0.1,   -0.1,   -0.0,   -0.2,   -0.5,   -0.1,   -0.3,   -0.3,   -0.3,   -0.0,   -0.1,   -0.1,   -0.4,    0.0,  999.0,   -0.1,    0.1,   -0.0,    0.1,    0.1,    0.0,    0.1,    0.3,   -0.3,   -0.0,   -0.0,   -0.1,   -0.1,    0.2,   -0.1,   -0.0,   -0.1,   -0.3,  999.0,   -0.3,   -0.1,  999.0,  999.0,  999.0,  999.0,  999.0,  999.0,  999.0
2016/12/02 00:20,  999.0,   -0.0,   -0.1,   -0.1,    0.3,    0.2,    0.0,    0.1,   -0.1,    0.0,   -0.1,   -0.1,    0.2,   -0.1,   -0.1,    0.4,    0.6,    1.0,    1.3,    1.9,    2.5,    4.0,    6.1,    7.5,    7.8,    9.5,   12.0,   13.4,   13.9,   13.9,   17.1,   12.9,   11.2,   10.6,    8.7,    8.3,    1.9,    0.8,    0.0,   -0.1,   -0.5,   -0.1,    0.2,    0.1,   -0.1,   -0.3,   -0.1,   -0.2,    0.2,  999.0,    0.0,    0.2,   -0.0,   -0.3,   -0.1,   -0.0,    0.1,    0.0,    0.0,    0.1,   -0.2,    0.0,   -0.0,   -0.2,  999.0,   -0.0,    0.0,    0.0,   -0.1,    0.0,    0.1,   -0.0,    0.0,    0.2,  999.0,  999.0,  999.0,  999.0,  999.0,  999.0
2016/12/02 00:30,  999.0,   -0.0,   -0.1,   -0.2,   -0.1,    0.1,    0.2,   -0.0,   -0.0,    0.1,    0.1,   -0.1,   -0.0,    0.2,    0.7,    0.9,    1.4,    1.6,    2.2,    2.7,    3.5,    5.3,    6.3,    6.4,    5.8,    4.6,    7.1,    6.4,    4.6,    4.5,    7.4,    9.3,    8.6,    6.7,    7.0,    4.2,    0.2,   -0.2,   -0.4,   -0.3,   -1.0,   -0.8,   -0.4,   -0.1,   -0.2,   -0.2,   -0.2,   -0.2,    0.1,    0.2,   -0.1,    0.0,    0.1,   -0.0,   -0.1,   -0.1,    0.2,    0.1,    0.0,    0.1,    0.2,   -0.3,   -0.2,    0.0,  999.0,    0.0,    0.2,   -0.1,    0.0,   -0.1,  999.0,   -0.1,   -0.4,  999.0,  999.0,  999.0,  999.0,  999.0,  999.0,  999.0
2016/12/02 00:40,  999.0,  999.0,   -0.0,    0.0,   -0.1,    0.1,   -0.1,   -0.2,   -0.3,   -0.1,   -0.2,    0.2,    0.2,    0.1,    0.1,    0.1,    0.0,   -0.0,    0.1,    0.4,    0.5,    1.2,    1.2,    1.3,    1.5,    1.4,    1.0,    0.6,    1.2,    0.4,    0.3,   -0.0,    0.1,    0.1,   -0.0,    0.1,    0.3,    0.1,    0.1,   -0.1,   -0.7,   -0.5,   -0.1,   -0.0,   -0.0,   -0.3,   -0.1,   -0.2,    0.1,    0.3,    0.2,    0.2,    0.1,    0.0,    0.3,   -0.1,    0.0,   -0.1,   -0.0,   -0.1,    0.2,    0.1,   -0.1,    0.1,   -0.1,    0.1,   -0.1,   -0.2,    0.2,    0.3,   -0.1,    0.2,  999.0,   -0.2,  999.0,  999.0,  999.0,  999.0,  999.0,  999.0
2016/12/02 00:50,  999.0,  999.0,   -0.0,    0.0,    0.1,    0.3,    0.1,    0.1,   -0.0,    0.2,    0.9,    0.3,    0.3,   -0.1,    0.0,    0.5,    0.4,    0.5,    0.5,    0.5,    1.0,    1.6,    1.6,    2.3,    2.0,    1.6,    1.4,    0.7,    0.6,    0.4,    0.2,    0.1,    0.4,    0.1,    0.3,   -0.1,    0.4,    0.3,    0.1,    0.1,   -0.6,   -0.3,  999.0,   -0.3,   -0.1,   -0.2,    0.0,  999.0,   -0.3,    0.1,   -0.1,   -0.1,   -0.0,   -0.2,   -0.3,   -0.0,    0.2,    0.1,    0.1,    0.2,    0.1,   -0.2,    0.0,    0.1,    0.0,    0.0,    0.2,   -0.5,  999.0,  999.0,    0.1,  999.0,   -0.2,  999.0,  999.0,  999.0,  999.0,  999.0,  999.0,  999.0
2016/12/02 01:00,  999.0,    0.1,   -0.2,    0.1,   -0.0,    0.0,   -0.3,   -0.2,   -0.2,   -0.2,   -0.2,    0.1,    0.2,    0.2,    0.4,    0.8,    0.8,    1.4,    0.6,    5.9,    6.1,    4.7,    7.7,    9.2,    6.6,    7.3,    4.6,    3.5,    3.9,    2.4,    1.4,    0.7,    0.5,    0.3,   -0.0,    0.3,   -0.1,    0.4,   -0.3,   -0.0,   -0.4,   -0.6,   -0.0,   -0.2,    0.0,    0.1,    0.0,   -0.0,    0.2,  999.0,    0.1,    0.0,   -0.2,   -0.1,    0.0,   -0.1,   -0.0,    0.2,    0.0,    0.0,   -0.1,   -0.0,   -0.1,   -0.0,   -0.1,    0.1,    0.3,    0.1,   -0.1,    0.1,    0.2,    0.1,    0.2,    0.3,  999.0,  999.0,  999.0,  999.0,  999.0,  999.0
2016/12/02 01:10,  999.0,    0.2,    0.2,    0.4,    0.1,    0.3,    0.5,   -0.2,    0.0,    0.4,    0.4,  999.0,    2.3,  999.0,  999.0,    3.8,  999.0,  999.0,  999.0,  999.0,  999.0,  999.0,  999.0,    5.0,    3.9,    2.7,    1.3,    0.5,    0.3,    1.0,    0.6,    0.5,    0.4,    0.4,    0.3,    0.2,    0.1,  999.0,    0.3,   -0.1,  999.0,   -0.1,   -0.0,   -0.1,    0.2,    0.3,    0.1,   -0.1,   -0.1,   -0.1,   -0.1,   -0.5,    0.1,    0.1,    0.0,    0.1,    0.2,   -0.0,   -0.0,   -0.3,   -0.0,    0.2,    0.0,    0.1,   -0.0,   -0.1,    0.0,    0.1,  999.0,  999.0,  999.0,  999.0,    0.7,    0.0,  999.0,  999.0,  999.0,  999.0,  999.0,  999.0
2016/12/02 01:20,  999.0,   -0.1,    0.1,    0.2,    0.2,  999.0,    0.3,   -0.8,   -1.1,    0.5,    0.2,   -0.5,   -0.2,  999.0,    0.6,    1.1,    0.3,    1.3,    1.2,    2.0,    2.0,    4.6,    5.9,    6.1,    6.9,  999.0,    8.5,  999.0,  999.0,  999.0,    1.4,    0.4,    0.2,    0.3,    0.4,   -0.3,    0.4,    0.2,    0.2,   -0.1,    0.3,   -0.3,    0.1,  999.0,    0.5,    0.1,   -0.0,   -0.4,    0.2,   -0.0,   -0.2,   -0.2,    0.1,   -0.0,    0.0,    0.1,   -0.1,   -0.1,    0.1,    0.0,   -0.2,   -0.0,   -0.0,   -0.0,    0.1,   -0.0,   -0.4,    0.3,    0.5,  999.0,    0.2,  999.0,  999.0,  999.0,  999.0,  999.0,  999.0,  999.0,  999.0,  999.0
2016/12/02 01:30,  999.0,   -0.0,   -0.1,    0.1,    0.2,    0.0,   -0.0,   -0.2,   -0.2,   -0.0,    0.6,    0.8,    1.9,  999.0,    0.2,   -0.7,    1.8,  999.0,  999.0,  999.0,  999.0,  999.0,   10.7,  999.0,  999.0,    9.4,    7.4,    6.6,    5.9,    1.4,    0.5,    0.2,    0.1,    0.3,    0.2,    0.6,   -0.1,   -0.1,    0.2,    0.2,   -0.2,    0.3,  999.0,    0.1,   -0.0,   -0.3,    0.0,    0.1,    0.0,   -0.1,   -0.1,    0.1,    0.2,   -0.0,    0.0,    0.1,    0.0,   -0.0,   -0.1,   -0.0,   -0.1,   -0.1,   -0.1,    0.1,    0.2,    0.1,    0.1,    0.1,   -0.1,   -0.1,  999.0,  999.0,  999.0,  999.0,  999.0,  999.0,  999.0,  999.0,  999.0,  999.0
2016/12/02 01:40,  999.0,    0.0,    0.2,    0.2,   -0.1,    0.4,   -0.2,    0.3,    0.9,    0.8,    0.9,    1.9,    3.1,  999.0,    0.3,    2.6,    3.4,  999.0,    9.8,  999.0,  999.0,  999.0,  999.0,  999.0,  999.0,   11.9,  999.0,  999.0,    5.9,    1.4,    0.6,   -0.1,    0.2,    0.1,    0.0,    0.1,    0.1,    0.4,    0.2,    0.6,   -0.5,   -0.6,   -0.1,   -0.1,    0.0,    0.0,    0.0,   -0.1,    0.2,    0.0,    0.0,   -0.1,   -0.1,   -0.1,   -0.3,    0.1,    0.1,   -0.2,    0.0,   -0.2,    0.1,   -0.0,   -0.1,   -0.2,    0.2,    0.0,    0.1,   -0.1,   -0.4,   -0.0,  999.0,  999.0,    0.1,  999.0,  999.0,  999.0,  999.0,  999.0,  999.0,  999.0
2016/12/02 01:50,  999.0,    0.0,  999.0,  999.0,    0.4,  999.0,    1.7,    1.7,    0.3,    3.6,    3.3,    2.3,    6.7,    6.4,  999.0,  999.0,  999.0,    7.1,    8.9,    5.6,    8.8,   10.1,  999.0,  999.0,  999.0,    9.8,    6.9,    5.7,    7.8,    2.4,    0.2,    1.0,    0.2,    0.3,    0.5,    0.0,  999.0,  999.0,   -0.1,   -0.1,   -0.3,    0.3,    0.2,    0.2,    0.2,    0.0,   -0.2,   -0.1,    0.1,    0.2,    0.0,    0.1,    0.1,   -0.0,   -0.0,    0.1,    0.2,   -0.0,   -0.0,   -0.1,   -0.1,   -0.0,    0.2,    0.1,    0.0,   -0.0,   -0.0,    0.1,   -0.1,  999.0,  999.0,  999.0,  999.0,  999.0,  999.0,  999.0,  999.0,  999.0,  999.0,  999.0
2016/12/02 02:00,  999.0,  999.0,  999.0,  999.0,  999.0,    9.3,  999.0,  999.0,    5.6,  999.0,   10.1,  999.0,  999.0,  999.0,  999.0,  999.0,  999.0,  999.0,  999.0,  999.0,  999.0,  999.0,  999.0,   18.3,   16.4,   13.7,  999.0,  999.0,   -0.0,    0.5,   -0.0,    1.8,    0.6,    0.3,  999.0,   -0.1,  999.0,    0.2,    0.2,   -0.1,   -0.4,  999.0,   -0.1,   -0.1,   -0.2,   -0.1,    0.0,   -0.1,    0.0,   -0.0,   -0.2,    0.1,    0.0,   -0.0,   -0.2,    0.1,    0.3,   -0.1,   -0.2,   -0.1,   -0.2,   -0.1,   -0.1,    0.0,   -0.2,   -0.0,   -0.0,   -0.0,   -0.1,  999.0,  999.0,  999.0,  999.0,  999.0,  999.0,  999.0,  999.0,  999.0,  999.0,  999.0
2016/12/02 02:10,  999.0,   -0.2,    1.7,    1.1,    4.7,    2.0,    2.6,    0.4,    0.4,    1.0,    1.4,    0.3,    0.4,    2.1,    1.0,    0.8,    0.7,    1.2,    1.2,    0.8,    1.5,    1.0,    3.4,    3.1,    1.7,    1.9,    1.7,    1.3,    0.6,    0.3,    0.4,    0.4,    0.3,  999.0,    0.2,   -0.1,    0.2,   -0.2,   -0.4,   -0.0,   -0.4,   -0.2,   -0.1,    0.1,    0.0,   -0.1,   -0.0,    0.2,    0.2,   -0.0,   -0.1,   -0.1,   -0.0,   -0.1,   -0.1,    0.0,    0.1,   -0.0,   -0.1,   -0.1,    0.1,   -0.0,    0.1,    0.0,    0.0,    0.1,    0.2,    0.1,    0.0,    0.1,  999.0,    0.2,   -0.1,  999.0,  999.0,  999.0,  999.0,  999.0,  999.0,  999.0
2016/12/02 02:20,  999.0,   -0.5,   -0.2,    0.1,   -0.2,   -0.1,    0.2,    0.6,    0.2,    0.0,    0.1,    0.2,    0.4,    0.6,    0.4,    0.3,    0.4,    0.6,    0.6,    0.7,    1.4,    2.5,    3.0,    3.0,    2.5,    4.8,    2.9,    3.9,    2.0,    1.1,    0.9,    0.4,    0.3,    0.1,    0.1,   -0.3,  999.0,  999.0,    0.1,   -0.2,   -0.2,   -0.2,    0.1,    0.1,    0.0,   -0.2,   -0.1,   -0.0,    0.2,    0.0,   -0.2,   -0.0,    0.0,   -0.0,   -0.1,   -0.2,   -0.2,   -0.1,    0.0,   -0.5,   -0.1,    0.0,   -0.0,    0.0,   -0.2,   -0.1,    0.0,   -0.0,    0.0,    0.1,   -0.1,    0.2,    0.0,  999.0,  999.0,  999.0,  999.0,  999.0,  999.0,  999.0
2016/12/02 02:30,  999.0,    0.3,    0.4,    0.5,    0.2,    0.0,    0.1,    0.1,   -0.1,    1.0,    1.6,    0.9,    1.2,    1.1,    0.9,    0.9,    1.0,    0.9,    0.4,    0.4,    0.3,    0.8,    1.5,    1.8,    2.1,    2.3,    1.9,    2.8,    1.8,    1.9,    1.1,    1.1,    0.6,    0.4,    0.5,    0.1,    0.1,   -0.0,   -0.1,   -0.0,   -0.4,   -0.3,   -0.0,    0.1,   -0.1,   -0.1,   -0.0,    0.3,    0.1,   -0.1,   -0.0,   -0.1,   -0.1,   -0.1,    0.0,   -0.1,   -0.2,   -0.1,   -0.2,    0.0,    0.1,   -0.2,   -0.0,   -0.0,   -0.1,    0.0,   -0.0,   -0.0,   -0.1,    0.0,    0.2,    0.2,    0.0,  999.0,  999.0,  999.0,  999.0,  999.0,  999.0,  999.0
2016/12/02 02:40,  999.0,   -0.2,    0.2,    0.3,    0.3,   -0.4,   -0.2,    0.3,    0.0,   -0.3,    0.5,    0.6,    0.6,    0.9,    0.9,    0.5,    0.5,    0.3,    0.2,    0.3,    0.5,    0.5,    1.4,    0.3,    0.7,    0.8,    1.6,    1.4,    0.8,   -0.2,   -0.6,   -0.5,   -0.2,  999.0,   -0.2,   -0.2,   -0.0,    0.2,    0.1,    0.1,   -0.2,   -0.4,    0.0,   -0.1,   -0.1,    0.0,    0.1,    0.1,   -0.1,    0.0,    0.1,   -0.1,    0.0,   -0.0,    0.1,    0.0,    0.1,    0.1,    0.1,   -0.0,   -0.0,   -0.0,   -0.0,    0.0,  999.0,   -0.1,   -0.2,    0.0,   -0.0,   -0.2,  999.0,  999.0,   -0.1,  999.0,  999.0,  999.0,  999.0,  999.0,  999.0,  999.0
2016/12/02 02:50,  999.0,   -0.4,   -0.4,   -0.2,   -0.1,    0.2,    0.3,    0.6,    0.4,    0.5,    0.5,    0.2,    0.6,    0.4,    0.5,    0.4,    0.4,    0.3,    0.3,    0.1,    0.5,    0.7,    1.0,    0.3,    0.5,  999.0,  999.0,  999.0,  999.0,  999.0,  999.0,  999.0,  999.0,  999.0,    0.1,  999.0,   -0.2,    0.0,    0.0,   -0.2,   -0.6,   -0.4,    0.2,    0.0,   -0.1,   -0.1,    0.1,    0.1,   -0.1,  999.0,   -0.1,    0.1,   -0.0,   -0.1,    0.1,   -0.0,    0.1,   -0.1,    0.1,   -0.1,    0.1,   -0.0,    0.0,    0.1,   -0.0,   -0.1,    0.1,    0.1,   -0.0,    0.0,   -0.2,  999.0,   -0.4,  999.0,  999.0,  999.0,  999.0,  999.0,  999.0,  999.0
2016/12/02 03:00,  999.0,   -0.0,   -0.2,    0.2,   -0.2,    0.1,    0.6,    0.2,    0.2,    0.9,    1.3,    1.3,    0.4,    1.0,    1.0,    0.9,    1.1,    0.6,    0.6,    0.4,    0.7,    0.9,    1.1,    0.4,    0.7,    0.4,    1.2,    0.7,    0.4,    1.2,    0.9,    0.2,    0.5,    0.2,  999.0,  999.0,    0.0,    0.2,    0.1,  999.0,   -0.0,   -0.0,    0.1,    0.1,   -0.0,    0.1,    0.2,    0.2,    0.1,   -0.1,   -0.1,   -0.0,    0.1,   -0.1,   -0.2,    0.0,    0.1,   -0.0,   -0.1,   -0.0,   -0.1,   -0.1,   -0.0,   -0.1,    0.2,    0.0,    0.2,   -0.0,  999.0,  999.0,  999.0,  999.0,    0.3,  999.0,  999.0,  999.0,  999.0,  999.0,  999.0,  999.0
2016/12/02 03:10,  999.0,    0.0,    0.0,    0.2,    0.5,    0.3,    0.8,    0.6,    0.8,    0.4,    0.6,    0.5,    1.0,    1.1,    0.7,    0.5,    0.5,    0.5,    0.4,    0.2,    0.4,    0.9,    1.2,    1.1,    1.1,    1.8,    1.2,    1.7,    1.2,    2.0,    0.8,    0.2,    0.2,    0.2,   -0.1,   -0.6,  999.0,    0.1,   -0.2,   -0.4,   -0.7,   -0.4,    0.2,   -0.2,    0.0,    0.0,   -0.0,   -0.2,   -0.0,   -0.0,    0.1,   -0.2,   -0.2,   -0.0,   -0.0,   -0.0,   -0.0,    0.1,    0.2,   -0.1,   -0.1,   -0.3,   -0.1,   -0.2,    0.0,    0.1,    0.1,   -0.1,   -0.0,  999.0,  999.0,  999.0,  999.0,  999.0,  999.0,  999.0,  999.0,  999.0,  999.0,  999.0
2016/12/02 03:20,  999.0,    0.1,    0.1,   -0.2,   -0.3,    0.2,   -0.1,   -0.0,    0.4,   -0.0,   -0.1,   -0.0,    0.0,    0.4,    0.3,    0.3,    0.4,    0.2,    0.2,    0.4,    0.5,    0.5,    1.1,    0.9,    1.2,    1.7,    2.0,    2.7,    2.9,    1.9,    1.3,    0.2,    0.2,    0.2,   -0.0,    0.2,    0.1,  999.0,    0.2,   -0.0,   -0.6,   -0.6,    0.2,   -0.5,    0.1,    0.1,   -0.1,  999.0,    0.3,   -0.1,    0.3,    0.3,    0.0,    0.1,   -0.2,   -0.2,    0.0,    0.3,    0.2,    0.5,    0.4,   -0.4,   -0.2,   -0.3,    0.0,   -0.1,    0.2,    0.2,    0.0,  999.0,  999.0,  999.0,  999.0,  999.0,  999.0,  999.0,  999.0,  999.0,  999.0,  999.0
2016/12/02 03:30,  999.0,    0.1,   -0.3,    0.5,    0.1,    0.1,    0.1,    0.0,    0.3,    0.3,    0.4,    0.4,    0.3,    0.5,    0.4,    0.7,    0.6,    0.4,    0.5,    0.3,    0.5,    1.0,    0.8,    0.8,    0.7,    1.2,    1.3,    1.5,    3.0,    2.2,    1.4,    0.9,    1.0,    0.1,    0.1,    0.3,    0.1,   -0.1,    0.0,   -0.1,   -0.8,   -0.7,   -0.2,   -0.2,   -0.7,   -0.1,    0.0,   -0.1,   -0.2,   -0.3,    0.2,    0.2,    0.2,   -0.0,   -0.0,    0.1,   -0.1,   -0.1,    0.3,   -0.0,   -0.2,   -0.1,    0.2,    0.1,    0.1,    0.1,   -0.0,    0.0,   -0.4,  999.0,  999.0,  999.0,  999.0,  999.0,  999.0,  999.0,  999.0,  999.0,  999.0,  999.0
2016/12/02 03:40,  999.0,    0.1,   -0.1,    0.2,   -0.3,   -0.2,    0.1,    0.1,    0.3,    0.3,    0.4,    0.2,    0.2,    0.4,    0.3,    0.4,    0.3,    0.5,    0.6,    0.6,    0.8,    1.0,    2.4,    1.1,    1.0,  999.0,    2.1,    2.3,    2.3,    2.0,    0.6,    0.3,   -0.3,   -0.0,    0.1,  999.0,  999.0,   -0.3,   -0.2,    0.2,   -0.5,  999.0,    0.1,   -0.2,   -0.4,    0.0,   -0.1,   -0.1,   -0.4,  999.0,   -0.1,    0.4,    0.1,    0.0,    0.2,    0.1,    0.1,    0.3,    0.0,    0.1,    0.2,    0.1,    0.3,   -0.1,    0.0,    0.1,   -0.0,    0.2,  999.0,  999.0,  999.0,  999.0,  999.0,  999.0,  999.0,  999.0,  999.0,  999.0,  999.0,  999.0
2016/12/02 03:50,  999.0,    0.0,   -0.0,   -0.1,    0.1,    0.1,    0.1,   -0.1,   -0.1,    0.2,    1.1,    1.0,    1.1,    0.8,    0.5,    0.2,    1.1,    1.2,  999.0,  999.0,  999.0,  999.0,  999.0,  999.0,   24.2,   25.6,  999.0,  999.0,  999.0,  999.0,  999.0,  999.0,  999.0,    0.3,  999.0,    0.1,   -0.3,    0.1,    0.1,   -0.2,   -0.5,  999.0,   -0.0,    0.5,    0.0,    0.2,   -0.2,   -0.2,   -0.1,   -0.0,    0.3,   -0.1,   -0.2,   -0.2,   -0.1,   -0.0,   -0.2,    0.3,    0.2,   -0.1,    0.3,   -0.0,   -0.1,   -0.4,  999.0,    0.0,   -0.1,   -0.0,   -0.1,  999.0,    0.1,  999.0,  999.0,  999.0,  999.0,  999.0,  999.0,  999.0,  999.0,  999.0
2016/12/02 04:00,  999.0,    0.8,   -0.4,   -0.5,   -0.4,   -0.1,    0.5,    0.4,    0.4,    0.3,    0.7,    1.3,    1.0,  999.0,    4.8,  999.0,    4.9,    7.4,    7.3,    6.2,    5.5,  999.0,  999.0,  999.0,  999.0,  999.0,  999.0,  999.0,   -2.2,  999.0,    0.4,    0.1,   -0.0,    0.1,   -0.0,   -0.0,  999.0,   -0.0,    0.2,  999.0,   -0.1,   -0.4,    0.2,    0.2,    0.0,   -0.0,   -0.0,   -0.1,  999.0,  999.0,    0.2,   -0.3,   -0.1,   -0.2,   -0.0,    0.1,   -0.1,   -0.2,   -0.1,   -0.2,   -0.1,    0.0,    0.1,   -0.1,  999.0,   -0.1,    0.0,   -0.2,   -0.7,  999.0,  999.0,  999.0,  999.0,  999.0,  999.0,  999.0,  999.0,  999.0,  999.0,  999.0
2016/12/02 04:10,  999.0,   -0.1,    0.2,    0.6,    0.7,    0.0,    0.3,    0.1,   -0.3,    0.6,    1.5,    1.4,    4.5,    9.1,    7.8,   10.7,   10.5,  999.0,  999.0,   15.7,  999.0,  999.0,  999.0,  999.0,  999.0,  999.0,  999.0,  999.0,   -2.9,   -2.5,   -0.6,  999.0,  999.0,   -0.0,  999.0,    0.2,  999.0,  999.0,  999.0,   -0.2,  999.0,   -0.4,    0.0,    0.2,  999.0,    0.0,    0.2,  999.0,  999.0,  999.0,   -0.6,   -0.0,   -0.0,    0.2,   -0.1,   -0.1,    0.3,    0.0,   -0.1,    0.4,    0.2,    0.1,    0.2,  999.0,   -0.1,    0.0,    0.0,    0.1,    0.1,  999.0,   -0.3,  999.0,  999.0,  999.0,  999.0,  999.0,  999.0,  999.0,  999.0,  999.0
2016/12/02 04:20,  999.0,   -0.0,   -0.0,    0.2,    0.0,    0.1,   -0.0,   -0.1,  999.0,  999.0,  999.0,  999.0,  999.0,  999.0,  999.0,  999.0,  999.0,  999.0,  999.0,  999.0,  999.0,  999.0,  999.0,  999.0,  999.0,  999.0,   -1.6,   -1.0,    0.1,   -0.1,    0.1,   -0.1,   -0.1,   -0.3,   -0.1,  999.0,    0.2,  999.0,  999.0,   -0.0,   -0.1,   -0.1,    0.2,  999.0,  999.0,    0.4,    0.3,    0.2,    0.0,    0.1,    0.1,    0.2,    0.4,   -0.3,    0.1,    0.1,    0.3,  999.0,    0.2,    0.3,    0.1,   -0.1,    0.1,   -0.0,    0.0,    0.2,    0.1,  999.0,  999.0,  999.0,    0.0,  999.0,    0.2,  999.0,  999.0,  999.0,  999.0,  999.0,  999.0,  999.0
2016/12/02 04:30,  999.0,   -0.0,   -0.2,    0.2,   -0.2,   -0.2,   -0.3,   -0.2,    0.0,    0.1,    0.2,   -0.0,    0.2,    0.4,    0.0,    0.1,   -0.0,    0.1,    0.1,   -0.2,   -0.3,   -0.3,   -0.7,   -1.0,   -1.4,   -1.4,   -2.3,   -1.4,   -0.1,    0.0,    0.1,   -0.2,    0.0,    0.2,    0.0,   -0.3,   -0.2,  999.0,   -0.2,    0.0,   -0.3,   -0.3,    0.1,   -0.1,    0.1,   -0.0,    0.2,    0.0,   -0.1,   -0.1,   -0.0,    0.3,    0.1,   -0.1,   -0.2,    0.1,    0.1,   -0.2,    0.0,    0.0,   -0.1,   -0.0,    0.2,   -0.1,   -0.1,   -0.1,   -0.1,   -0.2,  999.0,  999.0,  999.0,  999.0,  999.0,   -0.1,  999.0,    0.4,  999.0,  999.0,  999.0,  999.0
2016/12/02 04:40,  999.0,    0.0,    0.1,    0.1,    0.3,    0.1,    0.0,   -0.0,    0.1,   -0.0,    0.0,    0.1,    0.2,    0.2,   -0.1,   -0.2,    0.0,   -0.0,   -0.2,   -0.1,   -0.3,   -0.5,   -0.3,   -0.6,   -1.4,   -0.9,   -1.1,   -1.1,   -0.6,   -0.2,   -0.2,    0.1,   -0.0,    0.0,    0.2,   -0.3,    0.0,    0.0,    0.0,    0.0,   -0.3,    0.2,    0.1,    0.1,   -0.0,    0.1,    0.1,    0.2,   -0.1,    0.1,   -0.2,    0.1,   -0.1,   -0.2,    0.1,   -0.6,    0.1,    0.0,    0.1,    0.4,    0.3,    0.0,   -0.8,    0.0,   -0.1,    0.1,    0.3,    0.2,   -0.2,  999.0,   -0.3,    0.1,  999.0,    0.1,  999.0,  999.0,  999.0,  999.0,  999.0,  999.0
2016/12/02 04:50,  999.0,   -0.2,   -0.3,    0.3,    0.2,    0.3,   -0.1,   -0.2,    0.1,    0.3,    0.5,    0.2,    0.2,    0.2,    0.2,   -0.1,    0.0,   -0.1,    0.1,    0.3,   -0.0,   -0.9,  999.0,  999.0,  999.0,  999.0,  999.0,   -0.4,   -0.1,   -0.0,    0.2,    0.1,    0.0,    0.0,    0.2,  999.0,    0.1,    0.3,    0.4,    0.2,   -0.2,   -0.2,  999.0,   -0.1,    0.0,   -0.3,   -0.1,   -0.0,    0.2,    0.3,    0.2,    0.2,   -0.1,   -0.3,    0.2,    0.1,   -0.3,   -0.1,    0.2,    0.2,    0.1,    0.0,    0.2,    0.0,   -0.0,   -0.1,   -0.1,  999.0,   -0.1,  999.0,  999.0,   -0.0,   -0.1,    0.1,  999.0,  999.0,  999.0,  999.0,  999.0,  999.0
2016/12/02 05:00,  999.0,    0.2,    0.4,    1.4,    0.2,   -0.2,    0.2,   -0.0,    0.2,    0.3,    0.3,  999.0,    0.2,    0.2,   -0.3,  999.0,  999.0,  999.0,  999.0,  999.0,  999.0,  999.0,  999.0,   -2.7,   -1.1,   -0.8,   -1.3,   -0.3,   -0.3,   -0.0,    0.1,   -0.1,    0.1,   -0.1,   -0.1,  999.0,   -0.1,   -0.2,   -0.0,   -0.6,   -0.0,   -0.3,    0.2,  999.0,   -0.2,   -0.6,    0.0,  999.0,   -0.3,   -0.1,    0.2,   -0.1,   -0.3,   -0.3,   -0.2,   -0.1,   -0.1,    0.1,  999.0,    0.2,    0.2,    0.0,    0.1,    0.1,   -0.1,   -0.2,   -0.2,    0.0,    0.2,  999.0,   -0.2,   -0.0,  999.0,   -0.2,   -0.4,  999.0,  999.0,  999.0,  999.0,  999.0
2016/12/02 05:10,  999.0,    0.5,    0.4,   -0.0,    0.2,    0.4,    0.4,    0.4,    0.9,    0.7,    0.9,    0.3,    2.5,  999.0,  999.0,  999.0,    0.3,   -0.2,   -0.5,   -0.9,   -1.3,   -1.4,   -1.1,   -0.8,   -0.9,   -1.2,   -0.6,   -0.5,   -0.2,   -0.3,    0.1,   -0.1,    0.1,    0.1,    0.2,    0.1,    0.1,    0.2,   -0.1,   -0.1,   -0.6,  999.0,    0.0,    0.5,    0.2,    0.0,   -0.0,    0.0,   -0.6,   -0.2,    0.1,    0.1,   -0.0,    0.0,    0.1,   -0.1,   -0.1,   -0.0,   -0.1,   -0.3,   -0.1,    0.1,   -0.1,    0.0,    0.1,    0.0,  999.0,   -0.0,  999.0,  999.0,  999.0,  999.0,  999.0,  999.0,   -0.3,  999.0,  999.0,  999.0,  999.0,  999.0
2016/12/02 05:20,  999.0,    0.1,   -0.2,    0.4,    1.2,    1.7,    0.7,    1.2,    0.9,    2.0,    2.2,    2.8,    0.4,    0.2,    0.6,    0.4,   -0.1,   -0.6,   -0.4,   -0.3,   -0.9,   -1.9,   -2.5,   -2.3,   -1.0,   -0.6,   -0.9,   -0.8,   -0.2,    0.0,   -0.0,    0.1,    0.3,   -0.1,    0.0,  999.0,    0.3,   -0.2,    0.1,    0.1,   -0.4,  999.0,   -0.0,   -0.0,  999.0,  999.0,    0.1,    0.2,    0.3,    0.2,    0.2,   -0.0,    0.1,    0.0,   -0.2,   -0.2,    0.0,   -0.3,    0.1,    0.1,    0.1,    0.3,   -0.1,   -0.2,    0.1,    0.0,   -0.4,    0.1,    0.0,  999.0,  999.0,  999.0,  999.0,  999.0,  999.0,  999.0,  999.0,  999.0,  999.0,  999.0
2016/12/02 05:30,  999.0,    1.0,    2.0,    1.1,    0.5,    0.7,    1.9,    1.6,    2.5,    2.1,    2.3,  999.0,  999.0,  999.0,   -0.7,   -1.0,   -1.8,   -1.6,   -1.4,   -1.4,   -1.5,   -2.1,   -1.9,   -2.4,   -2.4,   -0.8,   -1.0,   -0.6,   -0.2,    0.2,    0.0,   -0.1,   -0.1,   -0.1,    0.0,   -0.3,    0.0,  999.0,   -0.2,   -0.3,   -0.5,   -0.2,    0.1,   -0.1,   -0.2,   -0.0,    0.0,    0.1,    0.2,    0.3,   -0.2,    0.1,    0.4,   -0.1,   -0.2,    0.1,    0.0,    0.1,   -0.1,    0.0,   -0.1,    0.0,    0.2,    0.1,  999.0,   -0.1,    0.0,   -0.1,    0.1,   -0.2,  999.0,  999.0,  999.0,  999.0,  999.0,  999.0,  999.0,  999.0,  999.0,  999.0
2016/12/02 05:40,  999.0,   -0.3,   -0.0,   -0.4,    0.9,   -0.0,    0.2,    0.2,    1.2,    1.0,    0.5,    0.5,   -0.0,  999.0,    0.2,    0.1,  999.0,   -0.7,    0.1,    0.0,   -0.5,   -0.9,   -1.8,   -2.3,   -1.9,   -0.9,   -0.3,    0.0,   -0.1,   -0.1,   -0.0,    0.1,    0.1,    0.2,   -0.1,   -0.2,    0.0,    0.0,    0.5,    0.2,   -0.3,   -0.2,   -0.4,    0.1,    0.1,    0.1,    0.1,   -0.1,   -0.0,   -0.0,   -0.0,   -0.0,   -0.1,    0.1,    0.0,    0.1,   -0.0,    0.1,   -0.0,    0.3,    0.1,    0.0,   -0.1,    0.1,   -0.3,   -0.2,   -0.3,    0.1,    0.5,   -0.1,  999.0,  999.0,  999.0,  999.0,  999.0,  999.0,  999.0,  999.0,  999.0,  999.0
2016/12/02 05:50,  999.0,    0.3,    0.3,    0.5,    0.6,    0.5,    0.2,    0.3,    0.2,    0.0,    0.1,    0.1,    0.1,    0.2,    0.0,   -0.4,   -0.3,   -0.2,   -0.3,   -0.1,   -0.7,   -1.6,   -1.6,   -1.2,   -0.7,   -0.2,   -0.4,   -0.1,   -0.0,    0.1,   -0.0,   -0.0,    0.1,   -0.1,   -0.2,    0.1,  999.0,   -0.1,    0.0,   -0.2,   -0.6,   -0.3,   -0.0,    0.1,    0.1,    0.4,  999.0,    0.0,   -0.1,   -0.1,    0.1,    0.2,   -0.4,   -0.4,   -0.2,   -0.1,   -0.1,    0.1,   -0.1,   -0.1,    0.2,    0.0,   -0.1,    0.0,   -0.1,    0.2,    0.1,   -0.1,    0.3,  999.0,  999.0,  999.0,    0.4,  999.0,  999.0,  999.0,  999.0,  999.0,  999.0,  999.0
2016/12/02 06:00,  999.0,   -0.9,    0.6,    0.9,    0.2,    0.1,    0.2,    0.1,    0.0,   -0.4,   -0.3,   -0.1,  999.0,  999.0,   -0.9,   -1.5,    2.0,    1.8,    2.5,    9.6,    6.3,    6.8,   -1.4,   -0.2,   -1.0,   -0.0,    0.1,    0.1,   -0.0,   -0.1,    0.2,    0.1,    0.1,    0.0,    0.1,  999.0,    0.1,    0.0,    0.3,   -0.1,   -0.2,   -0.4,    0.3,    0.2,  999.0,  999.0,    0.0,   -0.2,   -0.4,  999.0,   -0.1,   -0.2,   -0.3,    0.0,    0.1,   -0.1,    0.3,   -0.1,    0.3,    0.2,   -0.0,    0.2,    0.1,    0.1,   -0.4,    0.0,   -0.2,  999.0,   -0.1,  999.0,  999.0,  999.0,  999.0,  999.0,  999.0,  999.0,  999.0,  999.0,  999.0,  999.0
2016/12/02 06:10,  999.0,  999.0,   -1.6,   -1.0,    1.2,    0.8,    0.4,    0.5,    0.8,   -0.0,  999.0,  999.0,    9.4,    8.1,    9.3,    7.5,    5.1,   13.0,   15.6,   16.1,  999.0,  999.0,  999.0,   -2.5,   -1.1,    0.1,   -0.1,   -0.1,   -0.1,    0.2,    0.1,    0.3,    0.5,   -0.0,  999.0,    0.0,  999.0,  999.0,  999.0,   -0.3,   -0.7,  999.0,  999.0,   -0.1,   -0.1,   -0.0,   -0.2,   -0.5,   -0.1,   -0.4,    0.2,  999.0,   -0.2,   -0.1,    0.1,    0.5,  999.0,  999.0,   -0.1,   -0.2,    0.1,   -0.0,   -0.1,   -0.1,  999.0,   -0.1,    0.1,  999.0,  999.0,  999.0,  999.0,  999.0,  999.0,  999.0,  999.0,  999.0,  999.0,  999.0,  999.0,  999.0
2016/12/02 06:20,  999.0,    0.6,  999.0,    2.1,    0.8,    0.4,    0.1,    0.1,    2.8,  999.0,    4.6,  999.0,    7.1,  999.0,  999.0,  999.0,  999.0,  999.0,  999.0,  999.0,  999.0,  999.0,  999.0,  999.0,  999.0,   -0.4,   -0.1,    0.0,    0.2,    0.1,    0.0,    0.0,    0.2,   -0.1,    0.0,   -0.0,   -0.4,    0.0,   -0.1,    0.2,   -0.1,   -0.4,   -0.3,   -0.1,   -0.1,    0.1,    0.1,   -0.0,    0.2,  999.0,   -0.1,   -0.2,    0.0,   -0.1,    0.0,    0.1,    0.1,    0.0,    0.1,    0.0,    0.1,    0.1,    0.2,  999.0,  999.0,  999.0,  999.0,  999.0,  999.0,  999.0,  999.0,  999.0,    0.3,  999.0,  999.0,  999.0,  999.0,  999.0,  999.0,  999.0
2016/12/02 06:30,  999.0,  999.0,  999.0,  999.0,  999.0,  999.0,  999.0,  999.0,  999.0,   12.1,   13.2,   12.0,   17.9,  999.0,   23.6,   20.6,   15.4,  999.0,  999.0,  999.0,  999.0,  999.0,  999.0,  999.0,  999.0,  999.0,  999.0,  999.0,  999.0,  999.0,  999.0,  999.0,  999.0,  999.0,  999.0,  999.0,  999.0,  999.0,  999.0,  999.0,  999.0,  999.0,  999.0,  999.0,  999.0,  999.0,  999.0,  999.0,  999.0,  999.0,  999.0,  999.0,  999.0,  999.0,  999.0,  999.0,  999.0,  999.0,  999.0,  999.0,  999.0,  999.0,  999.0,  999.0,  999.0,  999.0,  999.0,  999.0,  999.0,  999.0,  999.0,  999.0,  999.0,  999.0,  999.0,  999.0,  999.0,  999.0,  999.0,  999.0
2016/12/02 06:40,  999.0,  999.0,    0.9,    0.4,    0.6,    0.2,   -0.6,   -0.0,    0.3,    1.5,    1.9,    4.9,    7.7,    6.8,    5.3,   -2.1,    4.9,    3.2,   -0.3,   -0.1,   -0.2,   -0.8,   -0.7,   -0.1,   -0.3,    0.1,    0.0,   -0.1,   -0.2,    0.1,    0.1,    0.1,    0.2,    0.1,    0.1,   -0.1,    0.0,    0.0,  999.0,   -0.0,   -0.3,   -0.4,   -0.1,   -0.2,   -0.1,    0.1,   -0.1,   -0.1,    0.1,    0.1,   -0.1,   -0.1,    0.1,   -0.2,   -0.0,    0.2,   -0.0,   -0.2,   -0.1,   -0.1,    0.1,    0.0,    0.2,    0.3,  999.0,    0.2,    0.1,   -0.0,  999.0,   -0.1,  999.0,  999.0,   -0.1,    0.2,  999.0,  999.0,  999.0,  999.0,  999.0,  999.0
2016/12/02 06:50,  999.0,    0.1,    0.8,    0.4,    0.5,    0.5,  999.0,  999.0,  999.0,  999.0,  999.0,  999.0,  999.0,  999.0,  999.0,  999.0,  999.0,  999.0,  999.0,  999.0,   -0.4,   -0.1,   -0.0,   -0.1,    0.0,    0.2,   -0.2,   -0.0,   -0.2,   -0.0,    0.0,    0.1,    0.1,    0.1,    0.1,    0.1,   -0.0,   -0.0,   -0.2,    0.0,   -0.1,   -0.3,   -0.0,    0.1,    0.1,    0.1,    0.0,    0.0,    0.1,   -0.0,    0.2,   -0.1,    0.0,   -0.0,   -0.1,   -0.1,   -0.1,   -0.1,   -0.1,   -0.1,    0.0,   -0.1,   -0.1,    0.2,  999.0,    0.5,    0.0,    0.1,   -0.2,   -0.1,    0.0,  999.0,   -0.0,   -0.2,  999.0,  999.0,  999.0,  999.0,  999.0,  999.0
2016/12/02 07:00,  999.0,   -0.4,    0.2,    0.2,    0.5,    0.4,    0.2,    0.2,    0.7,    0.5,    0.1,    0.1,   -0.0,    0.0,   -0.0,   -0.2,    3.6,    4.8,    3.8,    2.2,    0.0,    0.0,   -0.1,   -0.1,    0.1,   -0.1,   -0.0,   -0.1,   -0.1,   -0.0,   -0.1,    0.1,   -0.1,    0.0,    0.0,    0.5,    0.2,    0.1,    0.0,    0.1,   -0.2,   -0.2,   -0.3,    0.1,    0.2,    0.0,   -0.1,   -0.1,    0.2,   -0.1,   -0.0,   -0.1,   -0.0,    0.3,    0.1,    0.3,   -0.2,   -0.2,   -0.4,   -0.2,    0.0,   -0.1,    0.1,    0.1,   -0.1,   -0.1,   -0.2,    0.0,   -0.2,    0.0,  999.0,  999.0,  999.0,  999.0,  999.0,  999.0,  999.0,  999.0,  999.0,  999.0
2016/12/02 07:10,  999.0,   -0.2,   -0.4,    0.3,    0.2,    0.2,    0.1,   -0.2,    0.1,   -0.0,   -0.1,   -0.2,   -0.3,   -0.4,   -0.7,   -1.0,   -1.1,   -0.6,   -0.2,   -0.0,   -0.0,   -0.0,   -0.1,    0.0,   -0.0,   -0.0,    0.0,   -0.0,    0.1,   -0.2,    0.1,    0.1,    0.2,    0.2,    0.1,    0.3,    0.2,    0.3,    0.1,   -0.0,   -0.2,   -0.0,    0.2,    0.4,    0.1,   -0.2,   -0.1,    0.3,   -0.2,   -0.4,   -0.5,  999.0,   -0.2,    0.1,   -0.2,   -0.0,   -0.1,   -0.0,   -0.2,   -0.4,    0.2,   -0.2,   -0.2,    0.0,    0.2,  999.0,   -0.1,   -0.2,    0.2,    0.0,   -0.2,  999.0,  999.0,   -0.4,  999.0,  999.0,  999.0,  999.0,  999.0,  999.0
2016/12/02 07:20,  999.0,    0.3,    0.7,    0.5,    0.2,   -0.1,    0.1,    0.3,   -0.2,   -0.1,   -0.3,   -0.4,   -0.6,   -1.0,    5.6,    2.4,    3.3,    5.9,   -0.9,   -0.0,    0.0,   -0.0,   -0.1,   -0.2,   -0.1,   -0.0,   -0.1,    0.0,   -0.1,   -0.1,    0.1,    0.1,    0.0,   -0.0,    0.1,    0.2,    0.1,   -0.0,    0.1,   -0.1,   -0.2,   -0.1,    0.3,   -0.3,   -0.1,   -0.1,   -0.1,   -0.1,    0.3,   -0.3,    0.1,    0.0,    0.0,   -0.0,   -0.1,    0.0,   -0.2,    0.1,    0.1,    0.2,   -0.0,    0.1,   -0.1,    0.1,    0.1,    0.0,    0.3,   -0.1,   -0.5,   -0.1,   -0.3,  999.0,    0.0,  999.0,  999.0,  999.0,  999.0,  999.0,  999.0,  999.0
2016/12/02 07:30,  999.0,    0.6,    0.1,   -0.1,   -0.3,  999.0,    0.1,    0.1,    0.1,   -0.0,   -0.5,   -0.9,    4.5,    7.2,    6.2,  999.0,   13.5,    2.6,    3.0,   -1.1,   -0.5,   -0.1,    0.1,    0.0,   -0.1,   -0.0,    0.2,   -0.1,   -0.1,    0.1,    0.1,   -0.1,   -0.1,    0.0,    0.0,    0.2,    0.0,    0.1,   -0.1,   -0.1,   -0.2,   -0.3,   -0.0,   -0.0,   -0.1,   -0.0,    0.1,   -0.1,   -0.2,  999.0,  999.0,    0.2,   -0.1,    0.3,    0.5,   -0.0,    0.2,   -0.1,    0.4,    0.2,   -0.4,   -0.3,   -0.1,    0.1,   -0.3,   -0.0,   -0.0,   -0.1,   -0.4,   -0.2,  999.0,  999.0,  999.0,  999.0,  999.0,  999.0,  999.0,  999.0,  999.0,  999.0
2016/12/02 07:40,  999.0,    0.9,    0.5,    0.2,    0.7,    0.5,    0.2,    0.2,   -0.1,   -0.0,    0.9,    0.1,    0.3,    0.4,  999.0,   -1.5,  999.0,   -1.9,   -1.8,   -0.5,   -0.5,   -0.3,   -0.2,    0.1,    0.1,    0.1,    0.0,   -0.1,    0.1,   -0.0,   -0.1,    0.2,    0.1,    0.2,   -0.0,   -0.1,   -0.1,   -0.1,    0.1,    0.1,   -0.3,   -0.2,    0.1,    0.0,    0.1,   -0.1,    0.1,    0.1,    0.0,    0.0,    0.1,    0.0,   -0.0,   -0.1,    0.0,    0.2,    0.1,   -0.2,    0.0,  999.0,    0.1,   -0.0,   -0.2,   -0.0,   -0.1,    0.1,    0.0,   -0.0,   -0.1,    0.1,   -0.0,  999.0,  999.0,  999.0,  999.0,  999.0,  999.0,  999.0,  999.0,  999.0
2016/12/02 07:50,  999.0,  999.0,  999.0,   -0.0,   -0.3,  999.0,  999.0,  999.0,  999.0,  999.0,  999.0,  999.0,  999.0,  999.0,  999.0,  999.0,  999.0,  999.0,  999.0,   -0.6,   -0.3,   -0.2,   -0.2,   -0.1,   -0.1,    0.1,    0.0,   -0.1,   -0.0,   -0.1,    0.1,   -0.0,    0.1,   -0.0,    0.0,    0.1,    0.1,   -0.1,    0.3,    0.2,   -0.2,   -0.1,   -0.2,   -0.1,    0.0,   -0.1,    0.0,   -0.1,    0.0,    0.0,   -0.3,    0.1,    0.2,    0.2,    0.1,    0.2,   -0.1,   -0.1,   -0.0,   -0.1,   -0.2,   -0.0,   -0.0,   -0.1,   -0.1,    0.0,    0.0,   -0.0,    0.3,    0.1,   -0.3,  999.0,    0.3,  999.0,  999.0,  999.0,  999.0,  999.0,  999.0,  999.0
2016/12/02 08:00,  999.0,  999.0,    0.8,    0.2,    0.2,    0.1,    0.1,   -0.2,    0.0,  999.0,    3.1,    9.5,   11.3,   11.5,   14.2,   12.9,   -0.7,   -0.4,  999.0,   -0.1,   -0.5,   -0.1,   -0.2,    0.1,   -0.2,    0.1,    0.2,   -0.1,   -0.0,   -0.0,   -0.0,    0.0,    0.0,    0.0,   -0.2,   -0.0,    0.3,    0.4,    0.2,    0.1,   -0.4,   -0.1,   -0.2,   -0.1,   -0.0,    0.0,    0.2,    0.2,    0.2,   -0.2,    0.1,    0.1,    0.1,    0.2,    0.1,   -0.1,  999.0,    0.0,   -0.1,   -0.0,   -0.3,    0.0,   -0.0,   -0.0,   -0.3,    0.2,    0.1,   -0.0,   -0.4,   -0.2,  999.0,    0.1,    0.1,    0.3,  999.0,  999.0,  999.0,  999.0,  999.0,  999.0
2016/12/02 08:10,  999.0,  999.0,    0.1,    0.2,    0.0,   -0.0,   -0.1,   -0.1,    0.2,    0.0,   -0.1,    3.4,    1.4,    1.7,    0.0,    0.1,    0.0,   -0.1,   -0.2,   -0.1,   -0.1,    0.1,    0.0,    0.0,    0.1,    0.2,    0.1,   -0.0,   -0.1,   -0.0,    0.0,    0.1,   -0.1,   -0.1,   -0.1,   -0.0,   -0.1,    0.2,   -0.1,    0.0,   -0.0,   -0.1,   -0.1,    0.0,   -0.1,    0.1,    0.0,   -0.0,   -0.2,   -0.1,    0.1,   -0.1,   -0.0,   -0.1,   -0.0,   -0.1,   -0.1,   -0.1,   -0.1,   -0.1,    0.2,    0.2,   -0.1,    0.1,    0.1,    0.1,   -0.0,    0.0,    0.4,   -0.1,  999.0,    0.2,   -0.0,    0.0,    0.3,  999.0,  999.0,  999.0,  999.0,  999.0
2016/12/02 08:20,  999.0,  999.0,   -0.2,    0.2,    0.0,   -0.0,   -0.1,    0.1,    0.1,    0.0,   -0.1,   -0.1,   -0.1,    1.9,    4.2,   -0.1,    0.1,    0.0,    0.1,   -0.0,    0.0,   -0.1,   -0.1,   -0.1,   -0.0,   -0.1,   -0.0,   -0.0,    0.0,   -0.0,    0.1,    0.1,    0.1,    0.0,    0.1,    0.0,    0.0,    0.1,    0.2,   -0.1,   -0.2,   -0.3,   -0.1,   -0.1,    0.0,   -0.0,   -0.1,   -0.1,    0.0,   -0.1,   -0.1,   -0.1,   -0.2,    0.1,    0.1,   -0.0,    0.1,    0.1,    0.0,   -0.0,   -0.0,   -0.1,   -0.0,   -0.1,   -0.1,    0.0,    0.1,   -0.0,   -0.1,   -0.0,    0.2,   -0.0,    0.0,    0.0,   -0.1,  999.0,  999.0,  999.0,  999.0,  999.0
2016/12/02 08:30,  999.0,  999.0,  999.0,    0.1,    0.1,  999.0,    0.0,   -0.1,   -0.0,  999.0,    0.0,   -0.1,  999.0,    0.1,   -0.3,   -0.0,   -0.0,    0.0,   -0.0,   -0.0,   -0.0,    0.1,    0.1,   -0.1,    0.1,   -0.1,    0.1,   -0.2,   -0.1,   -0.1,   -0.1,    0.0,    0.0,    0.1,    0.1,    0.0,    0.0,   -0.0,   -0.1,   -0.0,   -0.1,   -0.1,   -0.1,   -0.1,    0.0,   -0.1,   -0.0,   -0.0,   -0.1,   -0.1,   -0.0,   -0.1,    0.0,   -0.0,   -0.1,   -0.0,    0.0,    0.1,   -0.0,   -0.0,    0.1,    0.0,    0.0,    0.2,   -0.1,    0.0,   -0.1,    0.1,    0.2,   -0.1,  999.0,    0.1,    0.1,    0.2,    0.1,  999.0,  999.0,  999.0,  999.0,  999.0
2016/12/02 08:40,  999.0,  999.0,   -0.1,    0.1,    0.0,    0.0,   -0.1,    0.0,    0.1,    0.1,    0.1,   -0.1,    0.0,   -0.0,    0.1,    0.1,    2.2,   -0.0,    3.0,    2.4,    3.2,    0.1,    0.0,   -0.1,   -0.1,   -0.1,   -0.0,   -0.0,   -0.1,   -0.1,    0.1,   -0.1,    0.1,    0.1,    0.1,    0.0,   -0.1,    0.0,   -0.0,    0.1,   -0.1,   -0.0,    0.0,   -0.1,   -0.0,    0.2,    0.1,    0.1,   -0.1,   -0.1,    0.1,   -0.0,    0.0,   -0.0,   -0.0,   -0.1,   -0.1,   -0.0,   -0.1,   -0.1,    0.1,    0.0,   -0.1,   -0.0,    0.1,    0.1,    0.1,   -0.0,   -0.2,    0.2,    0.3,   -0.4,   -0.1,    0.0,    0.1,  999.0,  999.0,  999.0,  999.0,  999.0
2016/12/02 08:50,  999.0,  999.0,   -0.0,   -0.0,   -0.1,   -0.0,    0.0,    0.0,   -0.0,   -0.1,    0.0,   -0.0,   -0.0,   -0.0,   -0.1,   -0.0,    0.0,   -0.0,   -0.0,   -0.0,    0.0,    0.0,   -0.0,    0.0,    0.0,   -0.0,   -0.0,    0.0,   -0.1,   -0.1,    0.0,   -0.0,    0.0,    0.1,    0.0,    0.0,    0.2,   -0.0,    0.0,   -0.0,    0.0,   -0.1,    0.0,   -0.1,    0.0,    0.1,    0.0,    0.0,   -0.1,    0.1,    0.1,    0.0,    0.0,    0.0,   -0.0,    0.1,   -0.0,   -0.1,   -0.0,   -0.0,    0.0,   -0.0,    0.1,   -0.0,   -0.0,    0.0,    0.0,    0.0,    0.1,    0.1,    0.4,   -0.1,   -0.0,    0.1,    0.3,  999.0,  999.0,  999.0,  999.0,  999.0
2016/12/02 09:00,  999.0,  999.0,    0.2,    0.0,    0.1,    0.1,   -0.0,   -0.0,    0.3,    0.3,    0.1,   -0.1,    0.1,    0.2,    0.2,    0.2,    0.0,   -0.0,    0.1,    0.0,   -0.0,    0.0,    0.0,   -0.0,   -0.1,   -0.0,   -0.0,    0.0,    0.1,   -0.0,    0.0,   -0.1,   -0.1,   -0.1,    0.2,   -0.0,   -0.1,   -0.0,    0.1,   -0.1,   -0.0,   -0.0,   -0.0,    0.0,    0.1,    0.0,    0.0,    0.0,   -0.1,   -0.0,    0.0,   -0.0,    0.1,   -0.0,   -0.0,    0.0,    0.1,   -0.0,   -0.1,    0.1,   -0.1,   -0.1,    0.1,   -0.1,    0.1,    0.1,   -0.1,    0.0,   -0.0,   -0.1,    0.1,    0.1,   -0.0,    0.1,   -0.1,  999.0,  999.0,  999.0,  999.0,  999.0
2016/12/02 09:10,  999.0,  999.0,   -0.2,    0.3,    0.0,   -0.0,   -0.0,   -0.0,    0.1,    0.0,    0.0,    0.2,    0.0,   -0.0,    0.0,    0.1,    0.0,   -0.0,   -0.0,    0.0,   -0.1,   -0.1,   -0.0,    0.0,   -0.2,    0.0,    0.0,   -0.1,   -0.0,    0.1,   -0.0,   -0.0,   -0.0,   -0.0,   -0.1,    0.1,   -0.0,   -0.0,    0.0,    0.1,    0.1,   -0.1,   -0.1,    0.0,    0.1,   -0.0,    0.0,    0.0,    0.0,    0.1,    0.0,    0.0,   -0.1,   -0.1,   -0.0,    0.1,   -0.1,    0.0,   -0.1,   -0.1,    0.0,    0.0,    0.0,   -0.0,   -0.0,    0.0,   -0.1,   -0.0,    0.0,    0.2,   -0.3,    0.1,    0.0,    0.1,    0.2,  999.0,  999.0,  999.0,  999.0,  999.0
2016/12/02 09:20,  999.0,  999.0,   -0.1,    0.0,   -0.1,   -0.0,    0.0,   -0.1,    0.0,    0.1,    0.1,    0.1,    0.1,    0.1,    0.1,    0.1,    0.2,    0.1,    0.0,   -0.1,   -0.0,   -0.0,    0.0,    0.0,   -0.1,   -0.0,    0.0,    0.1,   -0.0,    0.0,   -0.1,    0.1,   -0.0,    0.0,   -0.1,   -0.0,   -0.0,    0.1,   -0.1,    0.1,   -0.0,   -0.1,   -0.1,   -0.0,   -0.0,   -0.1,   -0.0,   -0.0,    0.1,    0.0,   -0.0,    0.0,   -0.0,    0.0,    0.0,   -0.0,    0.0,   -0.0,   -0.1,   -0.1,    0.0,   -0.1,   -0.1,    0.0,    0.2,   -0.1,   -0.0,    0.0,   -0.1,    0.0,   -0.1,   -0.1,   -0.1,   -0.0,    0.1,  999.0,  999.0,  999.0,  999.0,  999.0
2016/12/02 09:30,  999.0,  999.0,   -0.1,    0.0,    0.0,    0.0,    0.0,    0.0,    0.1,    0.0,    0.1,   -0.0,   -0.0,    0.0,    0.2,    0.1,    0.2,    0.1,   -0.1,    0.0,   -0.0,   -0.0,    0.1,   -0.1,   -0.1,    0.0,   -0.0,   -0.0,   -0.0,   -0.0,   -0.0,    0.1,    0.1,   -0.0,   -0.0,   -0.0,    0.0,   -0.2,   -0.0,    0.0,   -0.0,    0.1,   -0.1,   -0.0,   -0.0,    0.1,   -0.1,   -0.0,    0.0,    0.0,    0.0,   -0.1,   -0.0,   -0.1,   -0.0,    0.1,   -0.0,   -0.0,   -0.0,    0.0,    0.1,   -0.0,   -0.0,    0.0,    0.1,   -0.0,    0.0,    0.0,    0.1,    0.1,   -0.0,    0.1,    0.0,   -0.1,   -0.1,    0.2,   -0.3,  999.0,  999.0,  999.0
2016/12/02 09:40,  999.0,  999.0,    0.0,    0.2,    0.1,    0.0,   -0.1,   -0.0,    0.2,    0.1,    0.2,    0.2,    0.3,    0.3,    0.6,    0.5,    0.1,    0.3,    0.1,    0.1,    0.0,    0.1,    0.1,    0.1,   -0.0,   -0.0,    0.1,   -0.1,    0.0,   -0.1,    0.1,    0.1,    0.0,    0.1,    0.1,    0.0,   -0.0,   -0.3,   -0.2,   -0.1,   -0.2,   -0.0,    0.0,   -0.1,   -0.2,   -0.1,   -0.0,    0.1,   -0.0,    0.0,    0.0,    0.1,   -0.1,   -0.0,   -0.1,   -0.0,    0.2,   -0.1,    0.1,   -0.0,   -0.0,   -0.0,   -0.1,    0.0,    0.0,   -0.1,   -0.1,   -0.1,   -0.2,    0.1,  999.0,    0.1,   -0.0,    0.0,   -0.1,  999.0,  999.0,  999.0,  999.0,  999.0
2016/12/02 09:50,  999.0,  999.0,    0.0,    0.0,    0.1,    0.1,    0.1,   -0.0,    0.1,    0.1,    0.2,    0.3,    0.2,    0.1,    0.1,   -0.0,   -0.0,    0.2,    0.0,    0.1,   -0.1,    0.0,   -0.0,   -0.1,    0.0,    0.1,    0.1,    0.0,    0.1,   -0.0,   -0.0,   -0.0,   -0.0,    0.1,    0.0,    0.0,   -0.0,   -0.0,    0.0,    0.0,   -0.0,   -0.0,   -0.0,   -0.1,    0.0,    0.0,   -0.0,    0.0,    0.1,   -0.0,    0.0,   -0.0,   -0.0,   -0.1,    0.0,   -0.1,   -0.0,   -0.0,   -0.0,   -0.1,   -0.0,    0.0,    0.1,    0.1,   -0.0,    0.1,   -0.0,    0.0,    0.0,   -0.1,    0.3,   -0.0,   -0.0,   -0.2,    0.0,  999.0,  999.0,  999.0,  999.0,  999.0
2016/12/02 10:00,  999.0,  999.0,  999.0,    0.2,   -0.0,   -0.0,   -0.1,   -0.1,    0.0,    0.0,    0.1,    0.3,   -0.0,   -0.0,    0.2,    0.0,    0.5,    0.2,    0.2,    0.1,   -0.0,   -0.0,   -0.0,   -0.0,   -0.0,   -0.0,   -0.0,    0.0,   -0.0,    0.0,    0.1,    0.0,    0.1,    0.0,    0.0,    0.0,   -0.0,   -0.0,   -0.1,   -0.0,   -0.1,   -0.1,   -0.0,    0.1,    0.1,    0.1,   -0.1,    0.1,   -0.0,   -0.1,   -0.0,   -0.1,   -0.0,    0.0,    0.0,   -0.1,   -0.2,   -0.1,   -0.1,   -0.0,    0.1,   -0.0,   -0.0,   -0.0,    0.1,   -0.0,   -0.0,   -0.1,   -0.1,   -0.1,    0.1,    0.1,    0.0,   -0.2,   -0.3,  999.0,  999.0,  999.0,  999.0,  999.0
2016/12/02 10:10,  999.0,  999.0,   -0.2,   -0.1,   -0.0,   -0.0,   -0.0,   -0.0,    0.0,   -0.0,   -0.0,   -0.0,   -0.0,    0.1,    0.0,   -0.0,   -0.0,    0.0,    0.0,    0.0,   -0.0,   -0.0,    0.0,   -0.1,   -0.1,    0.0,   -0.0,   -0.0,   -0.1,    0.1,   -0.0,   -0.0,   -0.1,   -0.2,   -0.0,   -0.1,   -0.1,    0.0,    0.0,    0.0,   -0.2,   -0.2,   -0.0,   -0.0,   -0.0,   -0.0,    0.1,    0.0,   -0.0,    0.1,   -0.0,    0.0,   -0.0,   -0.0,   -0.0,    0.0,   -0.0,   -0.1,    0.0,    0.1,   -0.0,   -0.0,    0.0,    0.2,    0.0,    0.2,    0.0,    0.0,    0.0,    0.1,    0.1,    0.1,   -0.0,   -0.1,    0.2,    0.1,  999.0,  999.0,  999.0,  999.0
2016/12/02 10:20,  999.0,  999.0,   -0.1,   -0.0,    0.1,   -0.0,    0.0,   -0.1,   -0.0,   -0.1,   -0.1,    0.0,   -0.0,   -0.0,   -0.0,   -0.1,   -0.0,   -0.1,   -0.1,   -0.1,   -0.0,   -0.0,   -0.1,   -0.1,   -0.0,    0.0,   -0.0,   -0.2,   -0.1,    0.0,    0.1,   -0.1,   -0.0,    0.1,    0.1,   -0.0,   -0.0,   -0.0,   -0.0,    0.0,   -0.1,   -0.1,   -0.0,    0.0,   -0.1,   -0.0,    0.1,   -0.0,   -0.0,   -0.1,   -0.0,    0.0,    0.0,   -0.0,   -0.1,    0.1,   -0.1,    0.0,    0.1,   -0.0,   -0.0,    0.0,   -0.0,   -0.0,    0.1,   -0.0,    0.0,   -0.0,    0.0,   -0.0,   -0.1,    0.1,    0.1,    0.0,   -0.1,  999.0,  999.0,  999.0,  999.0,  999.0
2016/12/02 10:30,  999.0,  999.0,   -0.2,   -0.0,    0.0,   -0.0,   -0.1,   -0.0,   -0.1,   -0.1,   -0.1,    0.0,    0.1,    0.1,    0.0,    0.0,    0.0,    0.1,    0.1,    0.1,    0.1,   -0.1,    0.0,    0.0,    0.0,    0.1,    0.0,    0.1,    0.0,    0.1,   -0.1,   -0.1,    0.0,   -0.0,   -0.0,    0.0,    0.0,   -0.0,    0.0,    0.1,    0.0,   -0.0,   -0.1,    0.0,   -0.0,   -0.0,   -0.1,   -0.0,   -0.0,   -0.1,   -0.1,    0.0,   -0.0,   -0.0,   -0.1,   -0.1,   -0.0,   -0.0,    0.1,   -0.0,   -0.2,   -0.0,   -0.0,    0.1,    0.1,    0.0,    0.0,   -0.0,   -0.1,    0.1,    0.1,   -0.0,    0.1,   -0.0,   -0.3,    0.0,  999.0,  999.0,  999.0,  999.0
2016/12/02 10:40,  999.0,  999.0,   -0.1,   -0.0,   -0.0,   -0.0,    0.1,    0.1,    0.0,   -0.0,    0.0,    0.0,    0.0,   -0.1,   -0.0,    0.0,    0.0,    0.1,    0.1,    0.1,    0.0,   -0.0,    0.0,    0.2,    0.0,   -0.0,    0.0,   -0.0,   -0.0,   -0.0,   -0.0,   -0.1,   -0.1,   -0.0,   -0.1,   -0.1,   -0.1,   -0.2,   -0.0,    0.0,   -0.0,   -0.1,   -0.0,   -0.0,   -0.0,   -0.1,   -0.1,   -0.1,   -0.0,   -0.0,   -0.1,   -0.1,   -0.0,    0.0,    0.0,   -0.0,   -0.0,    0.0,   -0.0,   -0.0,   -0.0,   -0.1,   -0.0,    0.0,   -0.0,    0.1,    0.0,   -0.1,    0.1,   -0.0,    0.2,    0.1,    0.2,    0.0,    0.0,    0.3,  999.0,  999.0,  999.0,  999.0
2016/12/02 10:50,  999.0,  999.0,  999.0,   -0.0,    0.0,    0.0,    0.0,    0.0,   -0.1,   -0.1,    0.0,   -0.0,    0.1,   -0.0,   -0.0,   -0.1,    0.0,    0.1,   -0.0,   -0.1,    0.0,    0.1,    0.0,   -0.1,   -0.1,   -0.0,   -0.1,    0.0,   -0.1,    0.0,    0.1,   -0.1,    0.0,   -0.0,   -0.1,    0.0,    0.1,    0.0,    0.0,   -0.0,   -0.2,   -0.2,   -0.0,   -0.0,    0.1,    0.1,    0.0,   -0.0,    0.0,   -0.0,    0.0,    0.0,   -0.1,   -0.1,   -0.1,   -0.0,   -0.0,    0.0,    0.1,   -0.0,   -0.0,    0.1,   -0.0,    0.0,   -0.2,    0.0,    0.1,   -0.1,   -0.0,   -0.0,    0.0,    0.2,    0.1,    0.1,    0.1,  999.0,   -0.3,  999.0,  999.0,  999.0
2016/12/02 11:00,  999.0,  999.0,    0.0,    0.0,    0.0,    0.0,   -0.0,   -0.0,    0.0,    0.1,    0.1,    0.1,    0.1,   -0.0,   -0.1,    0.0,   -0.0,    0.0,   -0.0,   -0.0,    0.1,    0.0,   -0.0,   -0.0,   -0.1,    0.0,   -0.1,   -0.0,   -0.0,   -0.0,    0.0,   -0.0,   -0.1,   -0.0,   -0.0,    0.0,    0.0,   -0.0,    0.0,   -0.1,   -0.0,    0.0,    0.0,   -0.0,   -0.0,   -0.0,   -0.0,   -0.0,   -0.0,   -0.0,   -0.0,   -0.1,   -0.0,    0.0,   -0.0,    0.0,    0.0,   -0.1,    0.0,    0.0,   -0.1,   -0.0,   -0.0,   -0.0,   -0.0,    0.0,   -0.1,   -0.2,   -0.0,    0.0,    0.0,    0.2,   -0.2,    0.1,   -0.1,  999.0,  999.0,  999.0,  999.0,  999.0
2016/12/02 11:10,  999.0,  999.0,   -0.2,   -0.1,   -0.0,   -0.0,    0.0,   -0.0,    0.0,   -0.0,    0.1,    0.0,    0.1,   -0.0,   -0.0,    0.0,    0.0,    0.0,   -0.0,   -0.0,   -0.0,    0.0,   -0.0,   -0.1,    0.0,    0.0,   -0.1,   -0.1,   -0.0,    0.0,    0.1,   -0.0,   -0.0,    0.1,    0.0,    0.0,    0.0,    0.1,    0.0,   -0.0,    0.0,   -0.0,   -0.0,   -0.1,    0.1,    0.1,    0.0,   -0.1,   -0.1,   -0.1,   -0.0,   -0.0,   -0.0,   -0.0,    0.0,    0.1,    0.0,   -0.0,    0.0,    0.1,    0.1,    0.1,   -0.0,   -0.0,   -0.0,    0.0,   -0.0,    0.1,    0.1,    0.3,    0.0,    0.1,    0.1,   -0.0,   -0.1,  999.0,    0.1,  999.0,  999.0,  999.0
2016/12/02 11:20,  999.0,  999.0,   -0.3,    0.0,    0.0,    0.1,   -0.0,    0.0,    0.1,    0.0,    0.0,    0.1,    0.1,   -0.0,   -0.0,   -0.1,   -0.0,    0.1,    0.0,   -0.1,    0.0,    0.0,    0.0,   -0.0,    0.0,    0.0,   -0.0,    0.1,    0.0,    0.1,   -0.1,   -0.0,   -0.0,   -0.0,    0.0,   -0.0,   -0.1,   -0.2,    0.0,    0.0,   -0.1,   -0.1,    0.0,   -0.0,   -0.0,   -0.0,    0.1,    0.0,    0.1,   -0.0,   -0.0,    0.1,    0.1,    0.0,   -0.1,   -0.1,   -0.0,    0.1,    0.0,    0.1,   -0.0,   -0.1,    0.0,    0.1,   -0.0,    0.0,   -0.1,   -0.0,   -0.0,   -0.0,   -0.2,   -0.1,   -0.3,   -0.1,    0.0,  999.0,  999.0,  999.0,  999.0,  999.0
2016/12/02 11:30,  999.0,  999.0,   -0.1,   -0.0,   -0.0,   -0.1,   -0.0,    0.0,    0.1,    0.1,    0.0,   -0.1,   -0.0,    0.0,   -0.0,    0.1,    0.1,    0.1,    0.1,    0.0,    0.0,    0.1,    0.1,    0.0,    0.0,    0.0,    0.0,    0.0,   -0.0,    0.1,    0.0,    0.0,    0.1,    0.0,    0.1,    0.1,   -0.1,   -0.1,    0.1,    0.1,    0.0,   -0.1,   -0.0,    0.0,   -0.0,   -0.0,   -0.1,   -0.1,   -0.0,    0.0,    0.0,    0.1,    0.0,    0.2,    0.0,   -0.0,    0.0,    0.0,    0.0,   -0.1,    0.1,   -0.0,   -0.1,    0.1,    0.0,    0.0,    0.1,    0.0,   -0.2,   -0.0,  999.0,   -0.1,    0.1,    0.0,    0.3,  999.0,    0.1,  999.0,  999.0,  999.0
2016/12/02 11:40,  999.0,  999.0,   -0.2,   -0.1,    0.0,   -0.0,    0.0,   -0.0,   -0.1,   -0.1,    0.0,    0.0,    0.1,   -0.1,   -0.0,    0.0,    0.1,   -0.0,   -0.0,    0.0,    0.0,    0.0,    0.1,    0.0,   -0.0,   -0.0,    0.0,    0.1,    0.0,   -0.0,   -0.1,    0.0,   -0.1,    0.0,   -0.1,   -0.1,    0.0,    0.0,    0.1,    0.1,   -0.0,    0.1,   -0.0,    0.1,    0.0,   -0.1,   -0.1,    0.0,    0.0,    0.0,    0.1,    0.1,    0.1,   -0.1,    0.1,   -0.0,   -0.1,    0.0,    0.1,    0.1,    0.1,    0.1,    0.1,   -0.0,    0.1,   -0.0,    0.1,    0.1,   -0.0,   -0.1,    0.0,  999.0,    0.1,   -0.0,   -0.1,  999.0,  999.0,  999.0,  999.0,  999.0
2016/12/02 11:50,  999.0,  999.0,   -0.1,    0.0,    0.1,    0.0,   -0.0,   -0.1,    0.0,    0.1,    0.0,    0.0,    0.0,   -0.0,    0.1,    0.1,    0.1,    0.0,    0.0,    0.1,   -0.0,    0.0,   -0.0,    0.0,    0.0,    0.0,    0.0,    0.0,   -0.1,    0.1,   -0.0,   -0.0,    0.0,    0.0,    0.0,    0.1,    0.1,    0.1,    0.1,   -0.0,   -0.1,   -0.0,    0.0,    0.1,    0.0,    0.0,    0.0,   -0.0,    0.1,    0.0,    0.2,    0.1,    0.1,    0.0,   -0.1,   -0.1,   -0.1,   -0.0,   -0.0,   -0.0,    0.2,   -0.1,   -0.0,   -0.0,    0.1,    0.0,    0.0,    0.1,    0.2,    0.1,   -0.2,    0.1,    0.1,   -0.0,   -0.3,  999.0,  999.0,  999.0,  999.0,  999.0
2016/12/02 12:00,  999.0,  999.0,   -0.0,   -0.0,    0.1,   -0.0,    0.0,    0.0,    0.1,    0.1,    0.1,   -0.0,   -0.0,    0.1,    0.0,   -0.0,    0.0,   -0.0,   -0.0,   -0.1,   -0.0,    0.0,   -0.0,    0.0,    0.0,   -0.0,   -0.0,    0.0,    0.0,   -0.1,   -0.0,    0.1,   -0.1,   -0.0,   -0.0,   -0.0,    0.1,    0.0,   -0.1,   -0.1,   -0.1,   -0.1,   -0.1,    0.0,    0.0,    0.0,    0.1,    0.0,    0.1,    0.0,   -0.1,   -0.2,   -0.1,   -0.1,   -0.1,   -0.0,    0.0,   -0.2,   -0.1,    0.0,    0.0,    0.1,    0.1,    0.1,    0.0,   -0.1,    0.0,    0.0,   -0.0,   -0.0,   -0.0,   -0.2,    0.0,  999.0,    0.0,  999.0,  999.0,  999.0,  999.0,  999.0
2016/12/02 12:10,  999.0,  999.0,   -0.0,    0.1,    0.1,    0.0,   -0.1,    0.0,    0.1,   -0.1,   -0.1,   -0.1,   -0.0,   -0.0,    0.0,    0.1,    0.0,    0.1,    0.1,   -0.0,   -0.0,   -0.0,   -0.0,   -0.0,    0.0,    0.0,    0.0,    0.1,   -0.0,    0.0,    0.0,    0.1,   -0.1,   -0.1,    0.0,    0.1,    0.1,    0.2,    0.1,    0.0,   -0.0,    0.1,   -0.1,   -0.1,   -0.0,   -0.0,    0.1,    0.0,    0.1,   -0.1,    0.0,    0.1,   -0.0,    0.1,   -0.0,   -0.1,   -0.1,    0.1,    0.0,    0.1,   -0.1,   -0.0,   -0.0,   -0.0,   -0.0,    0.0,   -0.1,    0.2,   -0.0,    0.1,    0.1,    0.1,   -0.0,   -0.3,    0.0,  999.0,  999.0,  999.0,  999.0,  999.0
2016/12/02 12:20,  999.0,  999.0,   -0.1,   -0.0,    0.0,    0.0,   -0.1,   -0.0,    0.1,   -0.0,    0.0,    0.0,   -0.0,   -0.0,   -0.0,   -0.0,   -0.0,    0.1,    0.0,    0.0,   -0.0,   -0.0,   -0.1,    0.0,   -0.0,   -0.0,   -0.1,   -0.0,    0.0,   -0.0,   -0.0,    0.0,   -0.0,   -0.1,    0.1,   -0.0,   -0.1,    0.0,    0.0,   -0.1,   -0.1,   -0.1,   -0.1,    0.0,   -0.1,   -0.1,    0.0,    0.1,    0.1,   -0.0,   -0.0,   -0.0,   -0.1,   -0.1,   -0.1,   -0.0,   -0.1,   -0.0,   -0.0,   -0.1,   -0.0,    0.1,   -0.1,    0.0,   -0.0,    0.0,   -0.0,   -0.1,   -0.0,   -0.1,    0.1,    0.2,    0.0,   -0.0,   -0.1,  999.0,  999.0,  999.0,  999.0,  999.0
2016/12/02 12:30,  999.0,  999.0,   -0.2,   -0.0,    0.0,    0.1,    0.0,    0.0,    0.1,    0.1,    0.1,    0.1,   -0.0,   -0.0,    0.0,    0.0,    0.1,   -0.0,   -0.0,   -0.0,   -0.0,    0.0,   -0.1,   -0.0,   -0.0,    0.0,   -0.0,    0.0,    0.1,   -0.0,   -0.1,   -0.0,   -0.0,   -0.1,   -0.1,    0.1,    0.1,    0.0,    0.2,   -0.0,   -0.0,    0.1,   -0.0,    0.0,    0.0,    0.0,   -0.1,   -0.0,   -0.0,    0.0,   -0.1,   -0.1,   -0.1,    0.0,    0.1,    0.0,   -0.0,    0.1,   -0.0,    0.0,    0.0,   -0.1,   -0.0,   -0.1,   -0.1,   -0.0,    0.1,    0.1,    0.0,   -0.3,   -0.1,  999.0,   -0.0,   -0.0,    0.1,  999.0,  999.0,  999.0,  999.0,  999.0
2016/12/02 12:40,  999.0,  999.0,   -0.1,   -0.1,    0.1,    0.1,    0.1,    0.1,    0.0,    0.0,    0.1,    0.1,    0.0,    0.1,    0.0,   -0.0,    0.0,    0.1,    0.1,    0.1,    0.0,    0.0,    0.0,    0.0,    0.0,    0.1,    0.0,   -0.0,   -0.0,    0.0,    0.1,   -0.0,   -0.0,   -0.0,   -0.0,   -0.2,   -0.1,   -0.1,   -0.0,   -0.0,   -0.1,   -0.1,   -0.0,   -0.0,   -0.1,    0.0,    0.0,    0.1,    0.1,    0.1,    0.1,   -0.0,    0.0,    0.0,   -0.0,    0.1,   -0.1,    0.0,    0.0,    0.0,   -0.1,   -0.1,    0.1,   -0.0,   -0.0,   -0.1,    0.0,    0.1,    0.0,    0.1,    0.0,    0.1,    0.0,    0.3,    0.0,  999.0,  999.0,  999.0,  999.0,  999.0
2016/12/02 12:50,  999.0,  999.0,    0.0,   -0.1,   -0.1,    0.1,    0.0,    0.1,   -0.1,   -0.0,   -0.0,   -0.1,   -0.0,    0.3,    0.1,    0.1,    0.2,    0.1,    0.0,   -0.1,   -0.0,    0.1,    0.0,   -0.0,    0.0,   -0.0,    0.0,   -0.1,   -0.0,   -0.0,   -0.1,   -0.0,    0.0,   -0.1,   -0.1,   -0.0,   -0.0,   -0.0,   -0.1,   -0.1,   -0.1,   -0.0,   -0.0,    0.0,   -0.0,    0.1,    0.1,   -0.1,    0.1,    0.1,   -0.0,   -0.0,   -0.1,   -0.1,    0.0,    0.2,   -0.1,   -0.0,   -0.0,    0.0,    0.0,   -0.1,    0.0,    0.1,   -0.0,    0.1,   -0.1,    0.1,    0.2,    0.1,   -0.2,   -0.1,   -0.0,   -0.1,   -0.1,  999.0,  999.0,  999.0,  999.0,  999.0
2016/12/02 13:00,  999.0,    0.2,    0.2,   -0.1,   -0.4,   -0.1,   -0.1,    0.3,    0.2,    0.0,    0.3,   -0.1,    0.1,    0.1,   -0.2,    0.2,   -0.1,   -0.4,    0.2,    0.1,    0.1,   -0.0,   -0.0,   -0.1,   -0.1,   -0.1,   -0.0,   -0.1,   -0.1,   -0.1,    0.1,   -0.0,   -0.0,   -0.0,   -0.0,   -0.0,    0.0,    0.2,    0.2,   -0.3,   -0.1,   -0.1,    0.0,   -0.1,   -0.1,   -0.1,   -0.0,   -0.1,   -0.2,   -0.2,    0.0,   -0.1,    0.1,    0.1,    0.1,    0.2,   -0.0,    0.1,   -0.1,   -0.2,    0.0,   -0.0,   -0.1,    0.1,   -0.0,    0.2,    0.0,    0.1,   -0.0,    0.1,   -0.3,   -0.1,    0.0,   -0.2,   -0.0,  999.0,  999.0,  999.0,  999.0,  999.0
2016/12/02 13:10,  999.0,    0.0,   -0.1,    0.0,   -0.1,   -0.0,    0.5,    0.3,    0.2,    0.2,    0.1,    0.6,    0.5,    0.1,    0.0,    0.0,    0.0,   -0.0,    0.1,    0.0,    0.0,    0.0,    0.0,    0.0,   -0.1,   -0.0,   -0.1,    0.0,   -0.1,    0.1,    0.0,   -0.1,   -0.0,   -0.0,   -0.0,   -0.2,   -0.0,    0.0,    0.1,   -0.2,   -0.2,   -0.1,   -0.0,   -0.1,   -0.2,   -0.1,    0.1,    0.1,    0.1,   -0.2,   -0.1,   -0.0,    0.0,   -0.1,    0.0,   -0.1,   -0.1,   -0.0,    0.1,   -0.1,    0.0,   -0.1,    0.0,    0.1,    0.0,    0.2,   -0.1,   -0.2,   -0.0,   -0.1,   -0.3,    0.2,   -0.0,   -0.0,   -0.2,    0.0,  999.0,  999.0,  999.0,  999.0
2016/12/02 13:20,  999.0,    0.3,   -0.3,    0.0,    0.3,    0.2,   -0.2,   -0.1,   -0.2,   -0.2,    0.0,    0.2,    0.3,    0.2,    0.2,    0.0,    0.2,    0.8,    0.0,    0.1,    0.1,   -0.1,    0.0,   -0.0,   -0.0,   -0.2,    0.1,    0.0,    0.2,   -0.1,   -0.1,   -0.1,   -0.0,    0.1,   -0.0,   -0.0,    0.1,    0.1,    0.1,    0.0,   -0.2,   -0.2,   -0.1,   -0.1,   -0.0,    0.1,   -0.0,   -0.1,    0.2,    0.1,    0.0,    0.0,    0.0,   -0.1,    0.1,    0.1,    0.2,   -0.1,   -0.0,    0.1,   -0.0,   -0.0,    0.0,   -0.1,    0.1,    0.1,   -0.1,   -0.0,    0.3,  999.0,   -0.0,    0.1,   -0.1,    0.0,  999.0,  999.0,  999.0,  999.0,  999.0,  999.0
2016/12/02 13:30,  999.0,    0.4,    0.3,    0.4,    0.1,   -0.0,   -0.1,   -0.1,    0.6,    0.3,    0.5,    1.4,    0.8,    1.9,    2.1,    2.0,    3.8,    0.8,    0.6,    0.3,    0.1,    0.1,    0.0,    0.1,   -0.0,   -0.0,    0.1,    0.0,    0.0,    0.2,    0.0,   -0.0,   -0.0,   -0.1,   -0.1,    0.1,    0.0,   -0.1,    0.1,   -0.1,   -0.3,   -0.3,   -0.1,    0.1,    0.2,   -0.0,   -0.2,    0.0,   -0.0,    0.1,    0.0,   -0.0,   -0.1,    0.0,    0.2,    0.3,    0.1,    0.0,    0.3,    0.1,   -0.1,   -0.1,   -0.0,   -0.1,    0.2,    0.2,    0.4,   -0.1,  999.0,  999.0,  999.0,   -0.2,   -0.0,    0.0,   -0.4,  999.0,  999.0,  999.0,  999.0,  999.0
2016/12/02 13:40,  999.0,    0.0,    0.4,    0.3,    0.3,   -0.4,    0.0,    0.2,    0.5,    0.4,    0.0,    0.2,    0.4,    1.6,    1.1,    1.6,    1.8,    0.8,    1.0,    1.4,    0.8,    0.3,    0.2,    0.1,   -0.1,   -0.1,    0.0,   -0.0,    0.1,   -0.0,   -0.2,   -0.1,   -0.1,   -0.1,   -0.1,   -0.2,   -0.1,   -0.1,   -0.1,   -0.0,   -0.2,   -0.2,   -0.0,   -0.1,   -0.1,   -0.1,    0.3,    0.1,   -0.1,   -0.4,    0.1,    0.2,   -0.1,    0.1,   -0.0,   -0.1,    0.1,   -0.2,   -0.1,    0.0,   -0.0,    0.1,   -0.1,   -0.0,    0.0,   -0.0,   -0.1,   -0.2,   -0.1,    0.3,    0.0,  999.0,  999.0,  999.0,  999.0,  999.0,  999.0,  999.0,  999.0,  999.0
2016/12/02 13:50,  999.0,  999.0,  999.0,   -0.5,    0.0,    0.1,    0.0,   -0.1,   -0.4,    0.6,    0.4,    0.5,    0.9,    0.9,    1.5,    1.2,    1.4,    1.5,    1.8,    2.1,    1.4,    1.4,    0.1,    0.2,    0.2,    0.1,    0.0,    0.0,   -0.0,    0.0,   -0.0,    0.0,    0.3,    0.1,   -0.3,    0.1,    0.0,    0.1,   -0.0,   -0.2,   -0.2,   -0.2,   -0.1,   -0.1,   -0.0,    0.1,    0.1,   -0.0,    0.0,   -0.0,   -0.1,   -0.1,   -0.1,   -0.2,   -0.0,   -0.1,    0.0,   -0.1,    0.0,    0.1,    0.1,    0.0,   -0.0,    0.1,    0.2,   -0.0,   -0.1,    0.1,   -0.0,   -0.1,   -0.0,   -0.1,  999.0,  999.0,    0.3,  999.0,  999.0,  999.0,  999.0,  999.0
2016/12/02 14:00,  999.0,    0.1,    0.2,    0.2,    0.4,    0.1,    0.1,    0.1,    0.5,   -0.8,   -0.1,    0.6,    0.8,    1.3,    0.7,    1.1,    1.2,    0.7,    1.1,    0.9,    1.1,    0.8,    1.5,    0.8,    0.1,    0.1,   -0.1,   -0.1,   -0.0,    0.0,   -0.0,   -0.1,    0.2,    0.0,   -0.1,    0.0,   -0.4,   -0.3,    0.1,    0.2,   -0.2,   -0.1,    0.1,    0.0,   -0.0,    0.1,   -0.0,   -0.0,   -0.0,   -0.1,   -0.1,    0.2,    0.0,    0.0,    0.2,    0.2,   -0.2,   -0.2,   -0.1,   -0.1,   -0.2,   -0.0,    0.0,    0.0,   -0.1,   -0.0,   -0.1,  999.0,   -0.0,   -0.1,  999.0,    0.1,  999.0,  999.0,  999.0,  999.0,  999.0,  999.0,  999.0,  999.0
2016/12/02 14:10,  999.0,   -0.1,   -0.3,   -0.2,    0.0,    0.1,   -0.8,   -0.5,   -0.5,    0.1,    0.6,    0.0,    0.3,    1.3,    1.9,    1.9,    1.2,    0.5,    0.7,    0.8,    1.0,    1.3,    1.0,    0.5,    0.1,    0.1,    0.0,    0.2,   -0.0,    0.1,    0.1,    0.2,   -0.0,   -0.0,    0.5,    0.1,   -0.1,   -0.1,   -0.0,    0.2,   -0.5,   -0.5,   -0.1,   -0.2,   -0.1,    0.1,    0.0,    0.1,    0.0,   -0.1,   -0.1,   -0.1,   -0.1,    0.0,   -0.2,    0.1,    0.1,    0.1,    0.2,    0.1,   -0.1,   -0.2,    0.1,   -0.2,   -0.0,    0.1,    0.1,    0.2,    0.1,    0.2,  999.0,  999.0,   -0.3,  999.0,  999.0,  999.0,  999.0,  999.0,  999.0,  999.0
2016/12/02 14:20,  999.0,    0.5,    0.1,    0.3,   -0.0,    0.0,   -0.0,    0.1,    0.0,   -0.2,    0.8,    0.3,    0.8,    1.5,    4.0,    6.8,  999.0,    5.7,    4.0,    4.5,    5.5,    3.0,    1.3,    0.7,    0.3,    0.2,    0.0,    0.0,   -0.0,    0.1,   -0.1,   -0.3,   -0.1,    0.1,   -0.2,   -0.3,  999.0,   -0.1,   -0.2,   -0.1,   -0.4,   -0.3,    0.0,   -0.1,   -0.1,   -0.1,   -0.3,   -0.2,    0.1,    0.2,    0.2,    0.1,    0.2,    0.1,   -0.1,   -0.1,   -0.1,    0.0,   -0.0,   -0.4,   -0.1,   -0.0,    0.2,   -0.1,    0.1,    0.0,    0.2,    0.0,    0.2,    0.2,   -0.1,  999.0,  999.0,  999.0,  999.0,  999.0,  999.0,  999.0,  999.0,  999.0
2016/12/02 14:30,  999.0,    0.1,    0.2,    0.3,    0.2,   -0.0,   -0.1,    0.2,    0.1,   -0.3,   -0.8,    0.4,    1.6,    1.8,    1.5,    3.9,    3.8,    3.5,    2.8,    3.4,    5.0,    5.3,    0.5,    1.6,    0.0,   -0.2,    0.0,   -0.2,   -0.1,    0.0,    0.0,    0.2,    0.1,    0.1,   -0.1,   -0.1,    0.2,   -0.1,   -0.3,   -0.2,   -0.4,   -0.3,    0.0,    0.1,    0.2,    0.1,   -0.2,   -0.1,   -0.1,   -0.1,   -0.0,    0.1,   -0.3,   -0.1,    0.0,   -0.0,    0.0,    0.3,    0.1,   -0.1,   -0.2,   -0.1,   -0.1,   -0.2,   -0.3,   -0.2,  999.0,    0.0,   -0.2,    0.0,   -0.2,  999.0,   -0.2,  999.0,  999.0,  999.0,  999.0,  999.0,  999.0,  999.0
2016/12/02 14:40,  999.0,    0.7,   -0.1,   -0.2,   -0.1,   -0.1,   -0.2,   -0.4,   -0.6,   -0.9,   -0.2,    0.7,    0.5,    1.2,    2.1,    2.9,    4.0,    4.2,    5.2,    4.9,    5.6,    5.2,    0.8,    1.6,    0.0,    0.0,    0.2,   -0.3,   -0.0,    0.2,   -0.0,    0.1,    0.1,    0.0,    0.1,   -0.4,    0.1,  999.0,    0.2,   -0.0,   -0.7,   -0.3,    0.1,    0.0,   -0.1,    0.1,    0.1,    0.1,    0.1,   -0.0,    0.1,   -0.3,   -0.1,    0.2,    0.1,    0.2,   -0.1,   -0.1,   -0.1,   -0.1,    0.0,   -0.2,   -0.1,   -0.1,    0.1,    0.3,    0.1,    0.2,  999.0,   -0.1,  999.0,   -0.0,  999.0,   -0.1,  999.0,  999.0,  999.0,  999.0,  999.0,  999.0
2016/12/02 14:50,  999.0,    0.0,   -0.0,    0.1,   -0.0,   -0.3,   -0.8,   -0.3,   -0.2,    0.2,    1.9,    1.7,    3.4,    3.2,    4.2,    4.7,    5.7,    5.2,    5.9,    8.2,    7.7,    3.5,    1.3,    0.1,    0.1,   -0.0,   -0.1,   -0.0,   -0.1,    0.0,    0.1,    0.1,    0.1,    0.1,    0.0,   -0.3,   -0.3,    0.1,    0.1,   -0.2,   -0.6,   -0.2,    0.2,    0.1,   -0.0,   -0.1,    0.1,    0.2,    0.0,   -0.1,    0.0,   -0.1,   -0.1,   -0.1,   -0.1,    0.1,   -0.1,    0.0,    0.0,    0.2,    0.0,   -0.2,   -0.3,    0.0,   -0.1,   -0.1,   -0.0,   -0.0,    0.2,   -0.0,    0.0,  999.0,    0.1,  999.0,  999.0,  999.0,  999.0,  999.0,  999.0,  999.0
2016/12/02 15:00,  999.0,   -1.1,    0.1,    0.2,    0.2,   -0.1,    0.0,   -0.1,   -0.4,   -0.8,    1.1,    0.6,   -0.2,    1.5,    2.2,    3.1,    2.5,    1.9,    2.1,    1.9,    3.4,    2.6,    0.3,    0.0,    0.0,   -0.1,   -0.1,   -0.0,   -0.0,    0.1,   -0.1,   -0.1,    0.1,   -0.2,    0.0,    0.1,   -0.1,   -0.1,   -0.0,   -0.0,   -0.4,   -0.4,    0.1,    0.2,    0.0,    0.0,   -0.1,   -0.1,    0.0,   -0.1,   -0.0,    0.1,    0.1,    0.1,   -0.0,    0.2,   -0.0,   -0.2,   -0.1,   -0.0,   -0.1,    0.1,   -0.2,    0.0,    0.1,    0.0,   -0.0,   -0.2,    0.2,   -0.3,  999.0,  999.0,   -0.4,  999.0,  999.0,  999.0,  999.0,  999.0,  999.0,  999.0
2016/12/02 15:10,  999.0,   -0.1,   -0.2,    0.1,    0.2,   -0.0,   -0.1,   -0.2,   -0.5,   -0.2,    0.3,    0.1,    0.8,    2.0,    2.1,    2.6,    2.5,    2.5,    3.1,    5.1,  999.0,    3.9,    1.4,    0.1,    0.1,    0.0,   -0.1,    0.1,    0.2,    0.1,    0.1,    0.1,    0.1,    0.2,   -0.1,    0.1,    0.0,    0.0,    0.0,   -0.2,   -0.7,   -0.4,    0.2,   -0.1,   -0.2,   -0.1,    0.1,   -0.0,   -0.1,    0.0,   -0.1,    0.0,    0.0,    0.0,   -0.0,    0.2,    0.1,   -0.0,   -0.0,   -0.1,   -0.1,   -0.1,    0.1,   -0.1,    0.1,   -0.1,   -0.0,   -0.2,    0.0,    0.2,    0.0,   -0.2,   -0.1,  999.0,  999.0,  999.0,  999.0,  999.0,  999.0,  999.0
2016/12/02 15:20,  999.0,    0.1,    0.1,    0.0,    0.0,   -0.0,    0.1,   -0.3,   -0.1,   -0.3,    1.1,    2.5,    1.0,    1.2,    3.0,    3.4,    2.8,    4.0,    4.6,    6.6,    7.6,  999.0,    3.5,    2.0,    0.8,    0.3,    0.1,    0.1,    0.1,    0.0,   -0.0,    0.0,   -0.0,   -0.1,    0.0,   -0.0,    0.4,   -0.2,    0.1,    0.3,   -0.3,   -0.3,    0.1,    0.0,   -0.1,   -0.2,   -0.2,   -0.1,   -0.0,    0.1,    0.1,   -0.1,    0.0,   -0.1,    0.2,   -0.0,   -0.1,   -0.2,    0.0,   -0.1,   -0.2,    0.1,    0.2,   -0.2,   -0.1,    0.0,    0.2,    0.3,   -0.0,   -0.2,   -0.3,    0.3,   -0.8,   -0.2,  999.0,  999.0,  999.0,  999.0,  999.0,  999.0
2016/12/02 15:30,  999.0,    0.1,    0.1,    0.1,   -0.1,   -0.0,   -0.1,   -0.2,   -0.1,   -0.0,   -0.0,   -0.1,   -0.0,   -0.0,    0.7,    3.4,    2.0,    2.2,    4.5,    8.6,   11.0,    7.1,    4.9,    1.1,    0.2,    0.1,    0.1,    0.0,    0.0,    0.1,    0.3,   -0.0,    0.1,    0.0,   -0.1,    0.2,    0.2,    0.1,   -0.0,    0.0,   -0.2,    0.1,   -0.0,   -0.0,    0.0,    0.1,    0.0,   -0.0,   -0.3,   -0.3,   -0.1,   -0.1,    0.1,    0.2,    0.2,   -0.1,   -0.1,   -0.0,   -0.3,    0.2,   -0.0,    0.1,    0.1,    0.0,   -0.1,   -0.0,    0.2,   -0.0,  999.0,  999.0,   -0.1,   -0.6,   -0.2,   -0.3,  999.0,  999.0,  999.0,  999.0,  999.0,  999.0
2016/12/02 15:40,  999.0,   -0.1,    0.2,    0.5,   -0.1,    0.1,    0.0,    0.1,    0.4,    0.4,    0.2,    0.6,    0.5,    1.4,    1.4,    2.8,    3.3,    3.3,    5.6,    5.1,    9.1,  999.0,  999.0,    1.0,    0.7,    0.4,    0.0,    0.2,   -0.1,    0.1,   -0.1,   -0.1,    0.2,   -0.1,    0.2,    0.3,   -0.2,   -0.1,   -0.2,   -0.0,   -0.3,   -0.3,   -0.2,   -0.1,    0.1,    0.0,    0.1,   -0.1,   -0.0,    0.1,   -0.0,    0.2,    0.1,   -0.1,    0.0,    0.0,   -0.3,   -0.1,   -0.5,   -0.1,   -0.1,    0.1,    0.1,    0.1,    0.3,    0.0,    0.1,    0.0,   -0.1,    0.2,    0.1,    0.2,  999.0,   -0.4,  999.0,  999.0,  999.0,  999.0,  999.0,  999.0
2016/12/02 15:50,  999.0,  999.0,  999.0,    0.2,    0.1,   -0.2,    0.1,   -0.1,   -0.0,    0.0,   -0.4,    0.6,    1.7,    2.1,    1.8,    1.6,    2.6,  999.0,    7.3,    9.3,  999.0,  999.0,  999.0,    2.2,    2.0,    0.3,   -0.3,   -0.0,   -0.2,   -0.0,   -0.1,    0.2,   -0.8,   -0.1,   -0.1,   -0.2,  999.0,  999.0,   -0.0,   -0.2,   -0.4,   -0.1,   -0.1,    0.1,    0.2,    0.1,   -0.0,   -0.0,   -0.2,   -0.3,    0.0,   -0.1,   -0.2,    0.1,   -0.0,    0.0,   -0.0,    0.0,   -0.1,    0.1,    0.2,   -0.1,    0.0,   -0.0,   -0.0,    0.1,    0.1,    0.0,    0.2,   -0.1,  999.0,  999.0,    0.2,   -0.2,  999.0,  999.0,  999.0,  999.0,  999.0,  999.0
2016/12/02 16:00,  999.0,  999.0,  999.0,    0.3,    0.0,    0.5,    0.3,   -0.0,   -0.1,   -0.8,    0.4,    1.4,    2.6,    2.5,    1.9,    2.6,    5.0,    4.5,    3.4,    5.8,    6.4,  999.0,  999.0,    3.1,    0.6,    0.2,    0.2,    0.1,    0.3,   -0.0,    0.1,    0.3,    0.0,  999.0,  999.0,    0.1,   -0.5,  999.0,   -0.3,   -0.1,   -0.3,   -0.1,    0.1,   -0.0,    0.0,    0.1,    0.0,    0.1,    0.1,    0.1,    0.1,   -0.0,    0.0,   -0.1,    0.1,   -0.2,    0.2,    0.3,    0.1,   -0.1,   -0.4,    0.0,    0.0,  999.0,    0.0,    0.1,    0.1,    0.1,   -0.0,   -0.1,    0.3,    0.2,    0.0,    0.0,  999.0,  999.0,  999.0,  999.0,  999.0,  999.0
2016/12/02 16:10,  999.0,   -0.2,   -0.3,   -0.1,    0.3,    0.1,   -0.1,   -0.3,   -0.7,   -1.4,   -1.1,    0.0,    2.7,    2.8,    4.7,    6.7,    6.3,    9.0,  999.0,  999.0,  999.0,    2.1,    0.7,    0.5,   -0.1,    0.1,   -0.1,   -0.1,   -0.2,   -0.1,   -0.2,   -0.4,  999.0,   -0.1,    0.4,    0.1,    0.5,    0.2,    0.2,    0.0,    0.0,   -0.1,   -0.2,   -0.1,   -0.0,   -0.1,   -0.1,   -0.0,    0.0,   -0.1,   -0.0,   -0.1,   -0.1,    0.2,   -0.1,   -0.2,   -0.1,   -0.3,   -0.4,   -0.1,   -0.0,   -0.1,    0.1,  999.0,   -0.5,   -0.1,   -0.0,    0.1,   -0.0,   -0.2,    0.3,    0.1,    0.1,   -0.1,   -0.1,  999.0,  999.0,  999.0,  999.0,  999.0
2016/12/02 16:20,  999.0,    0.0,   -0.1,   -0.4,   -0.2,   -0.0,    0.3,   -0.6,   -0.4,   -0.1,    0.0,    0.5,    1.6,    2.8,    3.7,    4.3,    4.7,  999.0,  999.0,  999.0,  999.0,    1.3,    0.4,    0.2,    0.2,    0.0,    0.1,    0.2,   -0.2,    0.0,    0.0,    0.1,   -0.2,    0.0,    0.4,    0.3,    0.1,   -0.1,    0.3,   -0.1,    0.1,    0.0,    0.0,   -0.0,    0.0,   -0.1,   -0.1,   -0.1,   -0.0,    0.0,    0.0,    0.1,   -0.0,    0.1,   -0.1,    0.2,    0.2,    0.2,    0.2,    0.2,    0.2,    0.2,    0.5,    0.6,  999.0,    0.1,    0.0,   -0.1,   -0.0,   -0.1,   -0.5,  999.0,    0.1,   -0.1,   -0.1,  999.0,  999.0,  999.0,  999.0,  999.0
2016/12/02 16:30,  999.0,    0.2,    0.1,    0.5,    0.2,    0.1,   -0.5,   -0.1,   -0.5,  999.0,  999.0,  999.0,  999.0,    8.2,  999.0,    8.0,    8.2,    7.6,  999.0,  999.0,    6.5,  999.0,    1.6,    0.3,    0.1,   -0.0,   -0.0,   -0.1,    0.1,   -0.2,    0.2,    0.0,    0.1,   -0.0,   -0.1,    0.0,    0.3,    0.1,   -0.2,   -0.2,   -0.3,   -0.5,   -0.2,   -0.1,   -0.1,   -0.1,    0.1,   -0.2,    0.1,   -0.2,    0.0,    0.1,   -0.0,    0.0,    0.0,   -0.1,    0.3,    0.3,    0.1,   -0.0,   -0.2,   -0.0,    0.0,   -0.2,    0.0,    0.1,   -0.1,    0.2,    0.3,   -0.2,    0.1,    0.3,  999.0,    0.1,   -0.4,  999.0,  999.0,  999.0,  999.0,  999.0
2016/12/02 16:40,  999.0,   -0.3,   -0.5,   -0.5,   -0.4,   -0.2,   -0.6,   -0.6,    0.4,  999.0,  999.0,  999.0,    2.3,    3.9,  999.0,    5.6,    6.4,    4.6,    6.2,    8.5,    5.8,    1.6,    0.2,    0.3,    0.2,   -0.0,   -0.1,   -0.1,    0.1,   -0.1,   -0.1,    0.0,    0.1,    0.2,   -0.0,   -0.0,    0.0,   -0.2,    0.1,   -0.1,   -0.1,   -0.1,   -0.1,    0.1,    0.2,    0.2,   -0.1,   -0.0,   -0.1,    0.1,   -0.1,   -0.0,    0.1,    0.1,   -0.2,    0.1,    0.1,   -0.2,    0.0,   -0.2,   -0.0,    0.0,   -0.1,   -0.1,   -0.1,    0.1,    0.0,    0.2,   -0.1,   -0.1,    0.1,   -0.4,    0.0,    0.1,  999.0,  999.0,  999.0,  999.0,  999.0,  999.0
2016/12/02 16:50,  999.0,    0.0,    0.0,   -0.6,   -0.3,    0.1,    0.9,    0.9,    0.4,    0.1,    2.2,    3.1,    3.5,    2.1,    2.9,    5.0,    4.4,    4.4,    7.6,    6.7,    3.2,    0.7,    0.2,    0.3,    0.0,    0.1,   -0.1,    0.2,   -0.2,   -0.1,    0.0,   -0.1,    0.0,    0.2,   -0.1,    0.2,    0.1,   -0.2,   -0.0,   -0.1,   -0.2,   -0.0,    0.1,   -0.0,    0.0,    0.0,   -0.0,    0.0,    0.2,   -0.0,    0.2,    0.1,    0.0,   -0.2,   -0.2,   -0.3,    0.0,    0.0,    0.1,    0.1,   -0.1,    0.3,    0.3,    0.1,  999.0,    0.1,    0.1,    0.4,    0.1,   -0.0,   -0.1,  999.0,   -0.0,  999.0,   -0.2,  999.0,  999.0,  999.0,  999.0,  999.0
2016/12/02 17:00,  999.0,    0.2,   -0.1,    0.8,   -0.7,   -0.0,   -0.4,    0.1,   -0.6,   -0.5,   -0.3,    0.2,    3.2,    3.8,    4.5,    6.0,    6.0,    6.6,    7.5,    5.9,    2.7,    1.7,    0.1,   -0.0,    0.3,    0.1,    0.1,    0.1,    0.1,   -0.0,    0.1,    0.0,   -0.0,    0.0,    0.0,   -0.0,   -0.1,    0.2,   -0.0,   -0.1,   -0.3,   -0.2,    0.0,   -0.1,   -0.1,    0.0,    0.1,   -0.1,   -0.1,   -0.3,    0.1,   -0.0,   -0.1,   -0.0,   -0.0,    0.0,    0.1,    0.2,   -0.1,   -0.0,   -0.1,   -0.2,   -0.0,   -0.3,    0.1,    0.1,   -0.1,   -0.1,   -0.3,   -0.1,   -0.3,  999.0,  999.0,  999.0,  999.0,  999.0,  999.0,  999.0,  999.0,  999.0
2016/12/02 17:10,  999.0,    0.8,    0.4,    0.4,   -0.1,    0.8,  999.0,  999.0,   -0.6,    1.2,    1.7,  999.0,  999.0,    2.6,    2.9,  999.0,    5.2,    3.2,   -0.2,  999.0,    2.0,   -0.3,   -0.3,   -0.0,   -0.2,    0.0,    0.3,    0.1,    0.0,    0.1,    0.0,    0.1,   -0.2,   -0.2,   -0.0,   -0.2,   -0.3,   -0.1,   -0.0,   -0.2,   -0.2,   -0.3,    0.0,    0.0,    0.0,   -0.0,   -0.2,    0.0,   -0.1,    0.1,    0.1,    0.0,   -0.0,    0.0,    0.1,    0.1,   -0.1,   -0.1,    0.1,    0.1,   -0.1,   -0.1,    0.1,    0.3,   -0.1,    0.1,    0.1,    0.3,    0.2,   -0.1,   -0.0,    0.4,    0.1,    0.0,   -0.0,  999.0,  999.0,  999.0,  999.0,  999.0
2016/12/02 17:20,  999.0,    0.2,   -0.7,   -0.3,    0.1,    0.4,   -0.7,   -0.2,    0.0,   -0.7,    5.3,    3.6,    2.2,    4.5,    5.0,    6.2,    5.3,    4.9,    7.4,    7.6,    3.4,    0.9,    0.5,   -0.2,    0.2,    0.1,    0.0,    0.1,    0.0,   -0.1,   -0.1,   -0.0,    0.0,    0.2,   -0.1,   -0.1,   -0.5,   -0.4,    0.0,   -0.1,   -0.3,   -0.3,   -0.1,    0.1,   -0.1,   -0.1,   -0.0,    0.1,    0.2,    0.1,    0.3,   -0.0,    0.0,    0.1,    0.2,    0.1,    0.2,    0.4,    0.0,    0.1,   -0.2,    0.1,    0.3,    0.2,   -0.0,    0.1,    0.0,   -0.1,   -0.0,  999.0,   -0.2,   -0.1,   -0.0,    0.1,  999.0,  999.0,  999.0,  999.0,  999.0,  999.0
2016/12/02 17:30,  999.0,   -0.4,    0.0,   -0.2,    0.6,    0.3,    0.3,  999.0,    0.2,  999.0,  999.0,  999.0,  999.0,  999.0,    5.5,    6.1,    4.4,  999.0,  999.0,  999.0,    5.5,    2.1,    0.5,    0.2,    0.0,   -0.0,    0.1,    0.2,   -0.1,    0.0,   -0.1,   -0.4,    0.2,    0.1,    0.1,    0.4,  999.0,   -0.1,   -0.0,   -0.1,   -0.6,   -0.6,   -0.1,   -0.1,    0.0,    0.2,    0.3,    0.1,   -0.1,   -0.1,   -0.1,   -0.0,    0.2,    0.2,    0.0,   -0.0,   -0.1,   -0.1,   -0.0,    0.1,    0.1,    0.1,    0.0,    0.1,    0.1,   -0.1,   -0.2,   -0.1,   -0.2,  999.0,    0.4,    0.0,   -0.0,    0.1,    0.1,  999.0,  999.0,  999.0,  999.0,  999.0
2016/12/02 17:40,  999.0,   -0.9,   -0.0,    0.4,    1.6,   -0.4,   -0.3,    0.2,    0.0,    0.9,    4.6,  999.0,    2.6,  999.0,  999.0,    5.0,    5.8,    7.3,  999.0,    6.7,    3.4,    2.4,    0.5,    0.1,   -0.1,   -0.1,   -0.0,    0.2,    0.1,   -0.1,   -0.1,   -0.1,   -0.1,   -0.1,    0.1,    0.2,    0.2,  999.0,    0.1,    0.3,    0.0,   -0.1,   -0.1,   -0.3,   -0.1,   -0.0,    0.2,    0.2,   -0.0,    0.1,   -0.1,   -0.1,    0.2,   -0.2,    0.1,    0.0,    0.0,   -0.0,    0.1,   -0.0,    0.2,    0.1,    0.1,   -0.0,    0.1,    0.1,    0.0,   -0.1,  999.0,  999.0,   -0.1,   -0.3,   -0.2,    0.0,    0.3,  999.0,  999.0,  999.0,  999.0,  999.0
2016/12/02 17:50,  999.0,  999.0,   -0.5,   -0.4,    0.0,    0.1,   -0.0,    0.5,   -0.8,    1.1,    1.6,    1.5,    5.0,    8.0,   11.4,    8.3,    7.8,    7.2,  999.0,    6.4,    3.4,    0.4,   -0.2,    0.0,    0.2,    0.1,    0.3,   -0.1,   -0.2,    0.0,    0.0,    0.1,    0.1,   -0.0,   -0.0,   -0.1,    0.1,    0.2,    0.1,    0.0,    0.0,   -0.2,   -0.1,   -0.1,    0.0,   -0.2,    0.1,   -0.1,   -0.2,   -0.0,    0.1,    0.1,    0.2,   -0.1,    0.2,   -0.1,   -0.0,   -0.1,   -0.1,   -0.4,   -0.2,   -0.0,   -0.0,   -0.0,  999.0,   -0.2,    0.1,    0.1,    0.2,  999.0,  999.0,    0.1,  999.0,  999.0,    0.2,  999.0,  999.0,  999.0,  999.0,  999.0
2016/12/02 18:00,  999.0,    0.2,   -1.0,   -0.3,   -0.3,   -0.1,    0.0,    0.1,    0.4,    0.3,    1.9,    2.3,    3.1,    2.9,    5.3,    5.2,    5.0,    5.2,    5.7,    1.7,    0.8,    0.4,    0.2,    0.1,   -0.0,    0.3,    0.1,    0.1,    0.1,   -0.1,    0.2,    0.0,    0.1,   -0.1,   -0.2,    0.4,    0.1,   -0.0,   -0.2,   -0.2,   -0.3,   -0.2,    0.0,   -0.0,   -0.0,   -0.1,   -0.1,   -0.1,    0.1,    0.2,    0.1,   -0.0,   -0.0,    0.1,    0.1,   -0.0,   -0.0,    0.1,    0.0,    0.0,    0.1,    0.2,    0.2,    0.1,    0.1,    0.1,   -0.1,   -0.4,    0.2,  999.0,  999.0,    0.2,   -0.0,  999.0,  999.0,  999.0,  999.0,  999.0,  999.0,  999.0
2016/12/02 18:10,  999.0,    0.7,    0.0,   -0.3,   -0.3,   -0.0,   -0.3,   -0.0,    0.3,    1.0,    0.8,    1.5,    3.8,    4.1,    7.3,    6.2,    4.9,    5.1,    4.0,    2.6,    1.6,    0.2,   -0.1,   -0.1,   -0.1,   -0.0,    0.0,    0.2,   -0.0,    0.3,   -0.2,    0.0,   -0.2,   -0.0,    0.0,   -0.1,   -0.2,    0.2,    0.3,    0.0,   -0.4,   -0.2,    0.1,   -0.1,   -0.0,    0.1,    0.1,    0.1,    0.1,   -0.0,   -0.1,    0.2,   -0.0,    0.0,   -0.2,    0.2,   -0.1,    0.0,   -0.1,    0.1,   -0.2,   -0.1,   -0.2,   -0.3,    0.1,    0.0,    0.0,    0.1,    0.2,  999.0,  999.0,  999.0,  999.0,  999.0,  999.0,  999.0,  999.0,  999.0,  999.0,  999.0
2016/12/02 18:20,  999.0,    0.3,    0.3,    0.7,    0.2,    0.1,   -0.2,    0.2,    0.8,    0.3,    0.3,   -0.1,    0.5,  999.0,  999.0,  999.0,  999.0,  999.0,    4.2,    2.4,    2.8,    1.1,    0.3,    0.1,    0.1,   -0.1,    0.2,    0.0,    0.1,   -0.0,   -0.1,    0.0,   -0.1,    0.1,    0.1,    0.2,    0.2,  999.0,    0.4,   -0.2,   -0.2,   -0.1,    0.1,   -0.1,    0.1,   -0.1,    0.0,    0.1,   -0.1,    0.2,   -0.0,    0.2,    0.0,    0.3,    0.1,   -0.0,   -0.2,    0.1,   -0.1,   -0.0,    0.1,   -0.3,   -0.3,    0.1,   -0.0,    0.1,    0.3,    0.2,    0.0,  999.0,  999.0,  999.0,   -0.1,  999.0,  999.0,  999.0,  999.0,  999.0,  999.0,  999.0
2016/12/02 18:30,  999.0,    0.4,    0.3,    0.5,   -0.1,    0.1,   -0.0,    0.1,    0.4,    0.1,    0.6,    0.8,    0.7,    0.3,  999.0,  999.0,  999.0,    4.2,    3.1,    2.1,    1.7,    1.0,    0.2,    0.1,    0.0,   -0.0,    0.1,   -0.1,    0.1,    0.0,   -0.2,    0.0,   -0.3,   -0.2,   -0.3,   -0.1,   -0.0,    0.2,   -0.2,   -0.1,   -0.7,   -0.2,    0.1,   -0.1,    0.0,    0.0,    0.1,   -0.0,   -0.1,   -0.0,   -0.1,   -0.1,   -0.1,   -0.1,   -0.2,   -0.3,   -0.0,   -0.1,    0.2,    0.2,   -0.2,    0.1,    0.1,   -0.1,    0.0,   -0.0,   -0.4,    0.1,    0.2,  999.0,  999.0,  999.0,  999.0,  999.0,  999.0,  999.0,  999.0,  999.0,  999.0,  999.0
2016/12/02 18:40,  999.0,  999.0,  999.0,  999.0,  999.0,  999.0,    0.3,   -0.6,   -0.9,  999.0,  999.0,  999.0,  999.0,  999.0,  999.0,  999.0,  999.0,  999.0,  999.0,    2.7,    3.3,    1.0,    0.2,    0.1,   -0.0,    0.0,    0.0,    0.2,   -0.1,    0.0,    0.0,   -0.2,   -0.3,   -0.2,   -0.0,   -0.1,   -0.1,    0.0,    0.0,    0.1,   -0.1,   -0.2,   -0.1,   -0.1,   -0.0,    0.0,   -0.0,   -0.1,    0.0,   -0.1,   -0.1,   -0.3,   -0.0,    0.1,   -0.1,   -0.3,   -0.1,    0.0,    0.1,   -0.0,   -0.1,   -0.0,    0.0,   -0.0,   -0.2,    0.4,    0.0,    0.1,    0.0,  999.0,  999.0,  999.0,  999.0,  999.0,  999.0,  999.0,  999.0,  999.0,  999.0,  999.0
2016/12/02 18:50,  999.0,    1.5,    0.8,   -1.0,    0.8,  999.0,   -0.8,    0.5,    0.4,    1.2,    1.7,    1.7,    4.1,    2.7,    2.1,    2.9,    2.7,  999.0,    3.8,    4.0,    4.0,    0.8,   -0.0,   -0.0,   -0.0,    0.0,    0.1,    0.0,   -0.0,   -0.1,   -0.2,   -0.2,    0.1,    0.0,    0.1,    0.2,   -0.1,   -0.2,   -0.2,   -0.2,   -0.6,   -0.3,   -0.0,    0.0,    0.1,    0.1,   -0.0,    0.0,    0.0,   -0.1,   -0.0,    0.0,   -0.1,   -0.2,   -0.2,    0.1,    0.2,    0.1,    0.1,   -0.0,    0.1,   -0.1,    0.3,    0.1,    0.2,    0.3,    0.0,  999.0,   -0.2,  999.0,  999.0,  999.0,  999.0,  999.0,  999.0,  999.0,  999.0,  999.0,  999.0,  999.0
2016/12/02 19:00,  999.0,    0.6,   -1.0,   -0.6,   -1.0,   -0.6,    0.1,   -0.7,   -0.6,    0.0,   -0.1,    1.2,    1.1,  999.0,    1.8,  999.0,    4.1,    6.6,  999.0,    4.9,    3.8,    1.4,    0.2,    0.0,   -0.0,    0.1,    0.0,    0.1,    0.0,   -0.1,   -0.0,    0.0,    0.1,    0.3,   -0.1,    0.2,   -0.1,    0.1,    0.2,    0.2,   -0.2,   -0.0,    0.0,   -0.3,   -0.1,   -0.1,   -0.1,    0.0,    0.0,    0.0,   -0.1,    0.5,    0.1,    0.0,   -0.1,    0.1,   -0.1,    0.2,    0.3,    0.1,    0.1,   -0.3,    0.0,    0.0,   -0.3,   -0.1,    0.1,    0.2,  999.0,  999.0,  999.0,  999.0,  999.0,  999.0,  999.0,  999.0,  999.0,  999.0,  999.0,  999.0
2016/12/02 19:10,  999.0,    1.2,    1.2,   -0.2,   -0.8,   -0.1,   -0.0,    0.1,   -0.7,   -0.6,   -1.0,    0.6,  999.0,  999.0,  999.0,    1.0,    1.6,    3.9,    4.0,    3.8,  999.0,    1.2,    0.2,    0.1,   -0.0,   -0.0,   -0.2,   -0.1,    0.2,    0.0,   -0.0,   -0.1,   -0.3,    0.2,   -0.1,    0.0,    0.2,   -0.2,   -0.2,   -0.2,   -0.3,   -0.1,   -0.2,    0.0,    0.1,    0.0,    0.1,    0.2,    0.1,   -0.2,   -0.2,   -0.3,   -0.1,    0.1,    0.2,    0.0,   -0.2,   -0.0,   -0.2,    0.0,   -0.2,    0.0,    0.3,    0.1,   -0.1,    0.0,    0.0,   -0.1,   -0.2,  999.0,  999.0,  999.0,  999.0,  999.0,  999.0,  999.0,  999.0,  999.0,  999.0,  999.0
2016/12/02 19:20,  999.0,   -1.2,   -0.3,    0.3,   -0.0,   -1.1,  999.0,  999.0,  999.0,   -0.2,  999.0,  999.0,  999.0,  999.0,  999.0,    7.8,   10.0,   11.4,  999.0,  999.0,    1.8,    1.6,    0.2,    0.1,    0.0,    0.0,    0.2,   -0.1,    0.1,   -0.3,   -0.1,   -0.1,   -0.2,   -0.0,    0.3,  999.0,   -0.3,    0.3,   -0.1,    0.1,   -0.1,   -0.3,   -0.2,   -0.1,    0.0,    0.2,    0.1,    0.0,    0.2,    0.2,    0.2,    0.0,   -0.0,    0.0,   -0.0,   -0.1,   -0.0,    0.0,    0.1,    0.1,   -0.1,   -0.2,   -0.1,   -0.0,   -0.1,    0.1,    0.0,  999.0,   -0.1,  999.0,  999.0,  999.0,  999.0,  999.0,  999.0,  999.0,  999.0,  999.0,  999.0,  999.0
2016/12/02 19:30,  999.0,    0.2,    0.1,    0.1,    0.0,   -0.2,    0.5,    0.4,   -1.5,  999.0,  999.0,  999.0,  999.0,  999.0,  999.0,   10.4,   12.0,  999.0,  999.0,  999.0,    3.6,    1.3,    0.3,    0.2,    0.1,    0.2,    0.0,   -0.1,   -0.1,   -0.1,    0.0,    0.2,   -0.1,    0.0,   -0.2,   -0.3,   -0.1,   -0.1,   -0.1,   -0.1,   -0.5,   -0.3,   -0.1,    0.0,   -0.0,   -0.2,    0.0,    0.0,    0.1,   -0.0,    0.0,    0.1,   -0.0,    0.3,   -0.0,   -0.1,   -0.1,   -0.2,    0.1,   -0.1,    0.1,    0.1,   -0.1,   -0.2,    0.0,    0.1,    0.3,    0.2,   -0.0,  999.0,  999.0,  999.0,  999.0,  999.0,  999.0,  999.0,  999.0,  999.0,  999.0,  999.0
2016/12/02 19:40,  999.0,   -0.1,    0.5,   -1.0,   -0.9,   -0.7,   -0.7,   -0.3,    0.4,    1.0,  999.0,    1.8,  999.0,  999.0,    5.1,    9.4,   10.3,  999.0,  999.0,  999.0,  999.0,    1.1,    0.5,    0.3,    0.2,   -0.1,   -0.2,   -0.0,   -0.0,    0.0,   -0.2,   -0.1,   -0.0,    0.1,   -0.1,    0.1,    0.2,   -0.0,    0.3,    0.2,   -0.3,   -0.3,   -0.0,   -0.1,    0.0,    0.0,    0.0,   -0.1,    0.2,    0.2,    0.1,   -0.2,    0.0,   -0.3,   -0.1,    0.2,    0.1,    0.0,   -0.1,   -0.1,   -0.2,   -0.2,   -0.2,   -0.2,   -0.0,    0.2,   -0.1,    0.1,    0.3,  999.0,  999.0,  999.0,  999.0,  999.0,  999.0,  999.0,  999.0,  999.0,  999.0,  999.0
2016/12/02 19:50,  999.0,    1.4,   -1.1,   -1.2,   -0.3,   -0.0,   -0.7,   -0.5,   -0.5,  999.0,  999.0,  999.0,  999.0,  999.0,  999.0,    6.8,    8.2,  999.0,  999.0,  999.0,    5.7,    3.2,   -0.1,   -0.2,   -0.1,    0.2,    0.2,    0.1,    0.1,   -0.1,    0.1,   -0.1,    0.2,   -0.2,    0.0,    0.3,    0.0,   -0.1,    0.1,    0.2,   -0.2,    0.2,   -0.0,    0.0,   -0.0,   -0.0,   -0.0,   -0.1,   -0.0,   -0.0,    0.0,    0.0,   -0.2,   -0.2,   -0.1,   -0.1,   -0.1,   -0.1,   -0.1,   -0.2,   -0.2,   -0.1,   -0.3,    0.1,    0.0,    0.4,    0.3,  999.0,  999.0,  999.0,  999.0,  999.0,  999.0,  999.0,  999.0,  999.0,  999.0,  999.0,  999.0,  999.0
2016/12/02 20:00,  999.0,    0.5,  999.0,   -0.6,   -0.2,    0.0,    0.1,    0.0,   -0.0,    0.3,  999.0,  999.0,  999.0,  999.0,  999.0,  999.0,  999.0,  999.0,  999.0,  999.0,    7.6,    2.8,    0.0,    0.1,    0.1,    0.0,    0.0,   -0.0,   -0.1,    0.1,   -0.1,   -0.1,    0.1,    0.1,    0.0,    0.1,   -0.1,    0.2,    0.2,    0.0,   -0.1,    0.1,    0.0,   -0.2,   -0.1,   -0.2,    0.1,    0.0,    0.0,    0.1,   -0.0,   -0.0,    0.1,    0.0,   -0.1,    0.2,    0.0,    0.2,    0.2,   -0.1,   -0.2,   -0.2,    0.2,    0.0,   -0.2,   -0.1,    0.1,   -0.2,   -0.1,  999.0,  999.0,  999.0,  999.0,  999.0,  999.0,  999.0,  999.0,  999.0,  999.0,  999.0
2016/12/02 20:10,  999.0,    1.5,    0.4,    0.5,   -0.2,    0.0,   -0.1,    0.2,    0.1,   -0.1,  999.0,    1.6,    2.6,    4.1,    3.5,  999.0,  999.0,  999.0,  999.0,    7.2,    2.9,    0.4,   -0.1,    0.0,    0.1,    0.1,    0.1,   -0.1,    0.3,    0.1,    0.1,   -0.1,   -0.1,   -0.1,   -0.0,   -0.2,   -0.2,  999.0,   -0.2,   -0.4,   -0.1,   -0.2,   -0.1,   -0.1,    0.0,    0.2,   -0.2,    0.1,    0.2,   -0.2,   -0.1,   -0.1,   -0.0,    0.0,    0.2,    0.0,    0.1,   -0.0,   -0.1,    0.1,    0.2,   -0.5,   -0.2,   -0.1,    0.0,   -0.1,  999.0,    0.2,  999.0,  999.0,  999.0,  999.0,  999.0,  999.0,  999.0,  999.0,  999.0,  999.0,  999.0,  999.0
2016/12/02 20:20,  999.0,   -0.4,   -0.5,    0.3,   -0.1,    0.0,   -0.2,   -0.1,    0.1,    0.4,    0.3,    2.7,    2.7,  999.0,  999.0,  999.0,  999.0,  999.0,    7.5,  999.0,    3.7,    0.7,   -0.0,    0.0,    0.0,    0.0,    0.1,    0.1,   -0.3,   -0.1,    0.1,   -0.1,    0.2,   -0.1,   -0.1,    0.0,   -0.3,   -0.3,   -0.1,   -0.0,   -0.1,   -0.1,   -0.1,    0.1,    0.2,    0.1,    0.2,   -0.1,    0.1,    0.2,    0.0,    0.2,    0.2,    0.1,    0.1,    0.0,   -0.1,    0.1,   -0.2,    0.1,    0.1,    0.2,   -0.1,   -0.0,   -0.0,    0.1,    0.0,  999.0,  999.0,  999.0,  999.0,  999.0,  999.0,  999.0,  999.0,  999.0,  999.0,  999.0,  999.0,  999.0
2016/12/02 20:30,  999.0,   -0.0,    0.3,   -0.5,   -0.3,    0.1,    0.2,    0.1,    0.2,    0.8,  999.0,    0.3,  999.0,  999.0,  999.0,  999.0,    2.5,  999.0,    4.1,    4.5,    3.0,    2.4,    0.5,    0.2,   -0.0,    0.3,    0.2,    0.1,   -0.1,    0.2,   -0.2,   -0.1,   -0.0,    0.0,    0.1,   -0.0,   -0.3,    0.0,   -0.0,   -0.1,   -0.1,   -0.2,   -0.1,   -0.0,   -0.1,   -0.1,    0.0,    0.1,    0.1,    0.1,   -0.0,   -0.1,   -0.1,   -0.2,    0.2,    0.1,   -0.3,   -0.0,   -0.1,    0.0,   -0.2,   -0.2,   -0.1,   -0.1,   -0.0,   -0.1,   -0.0,  999.0,  999.0,  999.0,  999.0,  999.0,  999.0,  999.0,  999.0,  999.0,  999.0,  999.0,  999.0,  999.0
2016/12/02 20:40,  999.0,   -0.4,   -0.2,    0.0,    0.0,    0.2,    0.6,    0.5,    0.6,    0.3,    0.5,    1.0,    0.8,  999.0,  999.0,  999.0,  999.0,  999.0,  999.0,  999.0,    2.4,    1.3,    0.8,    0.0,   -0.0,    0.0,   -0.1,   -0.1,    0.0,    0.1,    0.0,   -0.0,    0.2,    0.0,    0.0,    0.0,   -0.1,    0.1,   -0.2,   -0.2,   -0.1,   -0.2,   -0.0,   -0.0,   -0.0,    0.1,   -0.1,    0.2,   -0.0,   -0.1,   -0.1,    0.0,   -0.0,   -0.2,   -0.1,   -0.2,   -0.2,    0.3,    0.0,    0.0,    0.2,    0.1,   -0.2,    0.1,    0.0,   -0.0,   -0.0,    0.4,   -0.0,    0.1,  999.0,  999.0,    0.1,  999.0,  999.0,  999.0,  999.0,  999.0,  999.0,  999.0
2016/12/02 20:50,  999.0,    0.8,   -0.1,   -0.1,   -0.1,   -0.1,    0.3,   -0.0,    0.0,   -0.3,    0.0,    0.9,    0.1,    2.0,  999.0,    2.7,    1.7,    2.7,    2.5,    1.9,    2.0,    1.0,    0.4,    0.1,   -0.2,    0.0,   -0.0,   -0.0,    0.0,    0.1,    0.1,   -0.0,    0.1,    0.1,    0.2,    0.0,    0.0,   -0.0,   -0.1,   -0.2,   -0.3,   -0.0,   -0.1,    0.1,    0.0,   -0.1,   -0.1,   -0.0,   -0.1,    0.1,   -0.1,    0.0,   -0.0,   -0.1,   -0.0,    0.2,    0.0,   -0.0,   -0.1,   -0.1,   -0.1,   -0.1,    0.1,    0.1,    0.1,   -0.0,   -0.1,    0.1,    0.1,  999.0,    0.6,    0.5,    0.1,  999.0,  999.0,  999.0,  999.0,  999.0,  999.0,  999.0
2016/12/02 21:00,  999.0,   -0.1,    0.2,    0.0,    0.1,    0.1,    0.1,    0.1,    0.0,   -0.1,    0.5,    0.6,    0.2,    1.5,    1.7,    1.4,    1.1,    0.9,    1.5,    1.4,    1.8,    1.5,    0.3,    0.0,   -0.0,   -0.1,    0.1,   -0.0,   -0.0,    0.1,    0.1,    0.3,   -0.0,   -0.2,    0.0,   -0.2,    0.1,   -0.0,   -0.1,   -0.1,   -0.3,   -0.0,    0.0,   -0.1,   -0.0,   -0.1,    0.1,   -0.1,   -0.2,   -0.2,   -0.2,    0.0,   -0.1,   -0.2,   -0.1,   -0.0,   -0.2,    0.0,   -0.0,    0.1,   -0.2,   -0.1,   -0.1,   -0.2,    0.1,   -0.1,  999.0,    0.1,  999.0,  999.0,  999.0,  999.0,  999.0,  999.0,  999.0,  999.0,  999.0,  999.0,  999.0,  999.0
2016/12/02 21:10,  999.0,   -0.2,    0.2,    0.1,    0.0,    0.3,   -0.0,    0.2,    0.1,   -0.2,  999.0,  999.0,  999.0,    2.3,    2.1,    1.3,    1.3,    2.9,    2.2,    2.3,    2.8,    2.1,    0.5,   -0.1,   -0.1,   -0.0,   -0.1,    0.1,    0.1,   -0.1,   -0.1,    0.1,   -0.1,   -0.0,   -0.3,    0.2,  999.0,   -0.1,   -0.1,    0.1,   -0.3,   -0.1,   -0.1,    0.1,   -0.1,    0.0,   -0.0,   -0.1,    0.0,    0.1,    0.1,    0.4,    0.1,   -0.0,    0.1,   -0.0,    0.0,   -0.0,   -0.0,   -0.0,   -0.0,   -0.0,    0.4,    0.0,    0.0,    0.1,  999.0,   -0.0,   -0.1,  999.0,  999.0,  999.0,  999.0,  999.0,  999.0,  999.0,  999.0,  999.0,  999.0,  999.0
2016/12/02 21:20,  999.0,   -0.0,    0.0,   -0.1,   -0.1,   -0.1,  999.0,   -0.7,    0.2,  999.0,  999.0,  999.0,    5.2,  999.0,  999.0,    4.5,    4.4,    2.7,    3.9,    1.9,    2.5,    1.0,    0.1,   -0.1,   -0.1,   -0.0,   -0.0,    0.2,    0.3,   -0.1,    0.0,   -0.0,    0.0,    0.3,    0.1,   -0.1,   -0.1,  999.0,   -0.1,   -0.0,   -0.2,   -0.1,   -0.1,    0.0,   -0.1,   -0.0,    0.1,    0.0,   -0.0,   -0.1,   -0.1,    0.0,   -0.1,   -0.0,   -0.0,    0.1,   -0.1,   -0.0,    0.0,    0.0,    0.1,    0.3,    0.3,    0.1,   -0.0,   -0.0,    0.1,  999.0,  999.0,  999.0,  999.0,  999.0,  999.0,  999.0,  999.0,  999.0,  999.0,  999.0,  999.0,  999.0
2016/12/02 21:30,  999.0,   -0.4,    0.0,    0.1,   -0.1,   -0.4,    0.2,    0.2,    1.1,    2.0,  999.0,    2.6,    2.1,    2.1,    3.6,    2.9,    3.7,    3.2,    4.0,    2.8,    2.9,    1.3,    0.4,   -0.1,   -0.1,    0.0,    0.0,    0.1,   -0.0,    0.0,   -0.1,   -0.2,   -0.3,    0.1,   -0.0,    0.1,  999.0,    0.1,    0.1,   -0.1,   -0.1,   -0.2,    0.0,    0.0,    0.0,    0.1,    0.0,   -0.1,   -0.1,    0.1,    0.2,    0.1,    0.2,    0.1,    0.1,    0.1,   -0.1,   -0.0,   -0.0,    0.0,   -0.3,    0.1,    0.0,   -0.0,   -0.1,    0.0,  999.0,   -0.5,  999.0,  999.0,  999.0,  999.0,  999.0,  999.0,  999.0,  999.0,  999.0,  999.0,  999.0,  999.0
2016/12/02 21:40,  999.0,    0.0,   -0.1,    0.3,    0.5,    0.1,   -0.4,   -0.4,   -0.3,   -0.4,    1.0,    1.0,    1.3,    1.0,    0.6,    0.8,    1.6,    1.6,    1.9,    2.1,    2.9,    1.6,    1.3,    0.2,    0.0,    0.1,    0.1,   -0.1,    0.1,   -0.2,    0.1,    0.1,    0.1,    0.2,    0.1,    0.1,    0.0,    0.1,    0.1,    0.0,   -0.2,   -0.1,   -0.0,   -0.0,   -0.0,   -0.0,   -0.0,   -0.1,   -0.1,    0.1,    0.1,    0.0,    0.0,    0.0,   -0.1,    0.1,    0.2,    0.1,    0.0,    0.3,   -0.2,   -0.2,   -0.1,   -0.1,   -0.2,   -0.3,  999.0,  999.0,  999.0,  999.0,  999.0,  999.0,  999.0,    0.1,  999.0,  999.0,  999.0,  999.0,  999.0,  999.0
2016/12/02 21:50,  999.0,    0.0,    0.0,    0.0,   -0.4,   -0.0,   -0.1,   -0.2,   -0.1,    0.3,  999.0,  999.0,    0.9,    1.6,    2.2,    1.2,    2.2,    1.9,    1.0,    1.6,    1.6,    2.1,    0.6,    0.1,    0.1,   -0.1,   -0.0,   -0.0,   -0.1,    0.0,    0.1,    0.0,    0.0,   -0.1,   -0.0,    0.0,    0.4,   -0.1,    0.0,   -0.1,   -0.2,   -0.2,   -0.1,   -0.0,   -0.1,    0.1,    0.0,    0.0,    0.1,    0.1,    0.1,   -0.1,   -0.2,    0.1,    0.2,   -0.1,   -0.1,    0.1,    0.2,    0.0,    0.1,   -0.0,    0.1,    0.1,   -0.1,  999.0,   -0.0,   -0.5,  999.0,  999.0,  999.0,  999.0,  999.0,  999.0,  999.0,  999.0,  999.0,  999.0,  999.0,  999.0
2016/12/02 22:00,  999.0,  999.0,    0.0,    0.1,   -0.0,   -0.0,    0.2,    0.4,    0.6,    0.3,    1.0,    1.3,    1.2,    0.9,    1.0,    1.2,    1.4,    1.5,    1.3,    0.6,    0.2,    0.2,   -0.1,   -0.1,   -0.2,    0.2,    0.1,   -0.0,   -0.0,    0.0,   -0.1,   -0.1,   -0.0,    0.0,   -0.0,   -0.0,    0.2,    0.2,    0.0,   -0.1,   -0.2,   -0.1,    0.0,    0.0,   -0.0,   -0.0,   -0.1,   -0.0,   -0.1,   -0.1,   -0.1,    0.2,    0.1,   -0.1,   -0.1,   -0.0,    0.0,    0.1,    0.1,   -0.1,    0.2,   -0.0,   -0.0,   -0.0,   -0.1,   -0.4,    0.1,  999.0,   -0.1,  999.0,  999.0,  999.0,  999.0,  999.0,  999.0,  999.0,  999.0,  999.0,  999.0,  999.0
2016/12/02 22:10,  999.0,  999.0,   -0.0,    0.0,    0.1,    0.0,    0.0,    0.2,    0.2,    0.3,    0.6,    0.4,    0.5,    0.2,    0.2,    0.7,    1.1,    1.3,    0.5,    0.4,    0.5,    0.2,    0.2,    0.1,    0.2,    0.1,    0.1,    0.0,   -0.1,    0.1,    0.1,   -0.0,   -0.0,    0.1,    0.1,    0.1,   -0.3,   -0.0,   -0.1,    0.0,   -0.1,   -0.2,   -0.1,    0.1,   -0.0,    0.0,    0.0,    0.1,   -0.1,   -0.1,   -0.0,    0.0,    0.1,   -0.1,    0.0,    0.2,    0.0,    0.1,    0.0,    0.0,    0.0,   -0.2,   -0.1,   -0.1,    0.1,   -0.2,    0.0,   -0.1,  999.0,  999.0,  999.0,  999.0,  999.0,  999.0,  999.0,  999.0,  999.0,  999.0,  999.0,  999.0
2016/12/02 22:20,  999.0,  999.0,   -0.1,   -0.1,    0.0,    0.6,    0.7,    0.1,   -0.1,   -0.2,    0.0,    0.2,    0.3,    0.0,   -0.0,    0.1,    0.1,   -0.0,    0.2,    0.4,    0.2,    0.3,    0.0,    0.2,   -0.0,   -0.1,    0.0,   -0.0,   -0.1,    0.0,   -0.0,   -0.1,   -0.1,   -0.1,    0.1,    0.0,    0.0,    0.1,   -0.0,   -0.1,   -0.1,   -0.1,    0.0,   -0.0,   -0.2,   -0.1,   -0.2,    0.0,   -0.0,    0.1,   -0.1,    0.0,    0.0,    0.1,    0.1,    0.1,   -0.0,    0.2,    0.1,   -0.0,    0.1,    0.0,   -0.1,    0.1,   -0.1,    0.2,    0.1,    0.2,  999.0,    0.1,  999.0,  999.0,    0.2,  999.0,  999.0,  999.0,  999.0,  999.0,  999.0,  999.0
2016/12/02 22:30,  999.0,   -0.1,   -0.0,    0.1,    0.2,    0.1,    0.3,    0.1,    0.1,    0.0,    0.1,   -0.2,    0.1,    0.1,    0.0,    0.2,    0.1,    0.3,    0.3,    0.2,    0.3,    0.3,   -0.2,   -0.1,    0.0,    0.1,    0.1,   -0.1,    0.0,   -0.0,    0.0,   -0.1,    0.2,   -0.1,   -0.1,   -0.0,   -0.1,    0.0,   -0.1,   -0.1,   -0.1,   -0.1,    0.1,   -0.1,   -0.1,    0.1,    0.2,    0.0,   -0.1,    0.0,    0.0,    0.1,    0.1,    0.0,    0.0,    0.0,    0.1,    0.0,   -0.0,    0.1,    0.0,   -0.1,   -0.2,    0.0,    0.2,    0.0,    0.1,  999.0,    0.2,  999.0,  999.0,  999.0,  999.0,  999.0,  999.0,  999.0,  999.0,  999.0,  999.0,  999.0
2016/12/02 22:40,  999.0,  999.0,   -0.2,   -0.2,    0.2,    0.3,    0.4,    0.5,    0.5,    0.1,    0.1,    0.2,    0.2,    0.1,    0.1,   -0.0,    0.1,    0.2,    0.3,    0.6,    0.5,    0.9,    0.6,    0.1,    0.0,   -0.0,    0.0,   -0.0,   -0.0,    0.0,    0.2,    0.0,   -0.0,    0.1,    0.0,    0.0,   -0.2,    0.0,    0.1,   -0.0,   -0.2,   -0.1,   -0.1,   -0.1,    0.1,    0.0,   -0.0,   -0.0,   -0.1,    0.1,    0.0,   -0.1,    0.1,    0.1,    0.0,   -0.2,   -0.0,    0.1,   -0.1,   -0.0,   -0.0,    0.0,   -0.1,    0.0,    0.0,    0.3,    0.1,  999.0,    0.1,   -0.3,  999.0,    0.1,  999.0,  999.0,  999.0,  999.0,  999.0,  999.0,  999.0,  999.0
2016/12/02 22:50,  999.0,  999.0,   -0.3,   -0.1,    0.0,    0.1,    0.2,    0.2,    0.1,    0.2,    0.3,    0.3,    0.2,    0.1,    0.0,    0.2,    0.2,    0.0,    0.1,    0.1,    0.2,    0.0,    0.1,   -0.0,    0.1,   -0.0,   -0.1,   -0.1,   -0.0,    0.0,    0.1,   -0.0,   -0.2,   -0.0,    0.0,   -0.1,   -0.0,    0.2,    0.1,    0.0,   -0.1,   -0.1,   -0.1,    0.0,    0.0,   -0.0,   -0.1,    0.0,    0.1,   -0.0,    0.1,   -0.0,    0.0,   -0.0,    0.0,    0.1,    0.0,   -0.0,   -0.1,    0.0,    0.1,    0.0,   -0.0,    0.1,    0.1,    0.1,   -0.0,   -0.0,  999.0,    0.0,    0.0,    0.2,    0.0,  999.0,  999.0,  999.0,  999.0,  999.0,  999.0,  999.0
2016/12/02 23:00,  999.0,  999.0,    0.1,    0.2,    0.5,    0.9,    0.3,    0.3,    0.3,    0.5,    0.6,    0.2,    0.4,    0.4,    0.3,    0.6,    0.6,    0.5,    0.8,    1.3,    1.6,    0.2,    0.9,    0.3,    0.2,    0.1,   -0.1,    0.1,   -0.0,   -0.1,   -0.1,    0.0,    0.1,    0.1,    0.3,   -0.1,   -0.0,    0.1,    0.0,   -0.1,   -0.1,   -0.1,    0.0,    0.0,   -0.0,   -0.0,    0.1,    0.1,    0.1,    0.0,   -0.1,    0.0,   -0.0,   -0.1,   -0.1,    0.1,   -0.1,    0.0,   -0.1,   -0.0,    0.1,   -0.1,   -0.0,    0.1,    0.2,    0.1,    0.0,   -0.2,   -0.0,  999.0,   -0.2,  999.0,   -0.0,  999.0,  999.0,  999.0,  999.0,  999.0,  999.0,  999.0
2016/12/02 23:10,  999.0,    0.0,    0.3,    0.1,    0.4,    0.6,    1.2,    1.1,    0.7,    0.4,    0.6,    0.3,    0.1,    0.1,    0.5,    0.5,    0.8,    0.5,    0.6,    0.8,    0.9,    1.3,    0.7,    0.5,    0.2,    0.2,    0.1,   -0.0,   -0.0,   -0.0,    0.1,   -0.1,    0.0,   -0.2,    0.0,   -0.0,   -0.1,   -0.1,   -0.1,    0.0,   -0.1,    0.0,    0.1,   -0.1,    0.0,    0.0,    0.1,   -0.0,   -0.0,    0.2,   -0.0,   -0.1,    0.2,    0.0,   -0.0,   -0.1,   -0.2,   -0.1,    0.0,   -0.1,   -0.1,   -0.1,   -0.2,    0.0,   -0.1,   -0.0,   -0.2,    0.1,   -0.5,  999.0,  999.0,    0.1,  999.0,  999.0,  999.0,  999.0,  999.0,  999.0,  999.0,  999.0
2016/12/02 23:20,  999.0,  999.0,    0.2,    0.1,    0.2,    0.3,    0.3,    0.2,    0.3,    0.5,    0.6,    0.3,    0.2,    0.2,    0.2,    0.2,    0.4,    0.4,    0.5,    0.8,    0.9,    1.1,    0.9,    0.1,    0.2,    0.2,   -0.0,    0.0,    0.1,   -0.0,   -0.1,   -0.2,   -0.0,    0.0,    0.0,    0.1,   -0.2,    0.1,   -0.1,   -0.1,   -0.1,   -0.1,    0.0,    0.0,    0.0,  999.0,   -0.1,   -0.1,    0.0,   -0.0,   -0.0,   -0.1,    0.0,    0.1,   -0.1,    0.1,   -0.1,    0.0,    0.1,    0.1,   -0.2,   -0.1,    0.1,    0.0,    0.0,    0.2,   -0.0,  999.0,    0.0,  999.0,    0.1,    0.1,    0.1,  999.0,  999.0,  999.0,  999.0,  999.0,  999.0,  999.0
2016/12/02 23:30,  999.0,  999.0,   -0.1,    0.0,    0.2,    0.3,    0.4,    0.4,    0.2,    0.4,    0.3,    0.1,    0.3,    0.3,    0.2,    0.3,    0.4,    0.4,    0.5,    0.8,    1.2,    1.7,    1.5,    0.3,    0.0,    0.1,    0.1,   -0.0,    0.1,    0.0,    0.1,   -0.0,   -0.0,    0.1,    0.0,    0.0,   -0.1,    0.1,   -0.1,   -0.1,   -0.2,   -0.2,   -0.1,   -0.1,   -0.0,    0.0,   -0.0,   -0.0,    0.1,   -0.1,   -0.0,    0.1,    0.3,    0.1,   -0.0,    0.1,    0.0,    0.1,    0.1,   -0.1,   -0.0,   -0.0,   -0.1,    0.1,    0.1,    0.1,    0.1,   -0.0,   -0.1,    0.0,    0.1,    0.1,  999.0,  999.0,  999.0,  999.0,  999.0,  999.0,  999.0,  999.0
2016/12/02 23:40,  999.0,  999.0,   -0.2,   -0.1,    0.1,    0.4,    0.4,    0.2,    0.1,    0.1,    0.4,    0.5,   -0.1,    0.2,    0.3,    0.9,    0.1,    0.5,    0.4,    0.6,    0.6,    0.8,    1.1,    0.2,    0.0,    0.0,   -0.0,    0.1,   -0.0,    0.1,   -0.0,   -0.1,    0.2,    0.1,    0.1,    0.2,    0.1,   -0.0,   -0.0,    0.1,   -0.1,   -0.1,    0.1,   -0.2,   -0.1,    0.0,    0.1,    0.1,    0.1,   -0.0,   -0.0,    0.1,    0.2,   -0.0,   -0.1,    0.0,   -0.1,   -0.2,    0.0,   -0.1,   -0.0,   -0.1,   -0.0,   -0.1,    0.0,    0.2,   -0.1,   -0.1,   -0.0,   -0.1,  999.0,  999.0,   -0.3,  999.0,  999.0,  999.0,  999.0,  999.0,  999.0,  999.0
2016/12/02 23:50,  999.0,  999.0,   -0.1,   -0.1,   -0.1,   -0.0,    0.2,    0.1,    0.0,   -0.1,    0.2,    0.3,    0.3,    0.1,    0.2,   -0.0,    0.0,    0.2,    0.4,    0.4,    0.8,    1.3,    0.5,    0.4,    0.0,    0.1,   -0.1,    0.1,   -0.1,   -0.0,    0.0,   -0.0,   -0.0,   -0.0,    0.1,   -0.0,   -0.2,   -0.1,    0.0,    0.1,   -0.1,   -0.1,   -0.1,   -0.0,   -0.1,   -0.0,    0.1,   -0.1,    0.0,   -0.1,   -0.2,    0.1,    0.1,   -0.0,   -0.0,    0.1,    0.1,   -0.2,   -0.1,   -0.0,   -0.1,    0.1,   -0.1,   -0.0,   -0.1,   -0.1,    0.0,   -0.0,    0.0,    0.1,   -0.2,  999.0,    0.0,  999.0,  999.0,  999.0,  999.0,  999.0,  999.0,  999.0
